GFSCGP_850_thetae_036.txt.gz
Theta_e
317 314 315 315 314 316 317 317 317 315 315 317 320 319 321 324 327 328 329 330 329 328 323 321 321 322 324 327 326 325 325 324 323 323 324 324 326 327 327 326 323 320 320 320
315 316 315 316 316 318 318 318 317 316 314 315 315 317 322 322 325 327 329 329 329 328 327 324 323 322 323 324 325 325 326 326 325 324 324 325 325 326 326 323 321 321 320 320
316 316 318 318 317 318 317 318 317 318 316 314 315 316 321 320 324 325 327 329 328 329 329 327 326 325 324 323 323 325 325 325 325 326 325 325 326 326 323 321 321 321 317 316
316 316 318 318 318 316 318 316 317 317 316 314 313 314 316 317 323 321 324 327 329 329 329 329 328 328 327 326 325 325 324 324 326 325 324 324 325 325 324 322 321 319 315 313
317 318 318 318 317 316 317 317 318 318 317 316 317 315 314 315 317 322 322 325 328 328 328 328 328 328 328 327 327 326 326 325 327 325 325 325 326 325 324 322 320 318 315 313
315 318 316 316 316 316 318 318 314 315 316 317 317 316 316 316 317 319 321 323 327 328 327 327 327 328 329 328 328 327 326 325 325 325 325 325 326 326 323 322 320 317 315 315
317 317 317 318 318 317 316 314 315 316 317 318 317 318 317 315 314 315 315 320 326 328 328 326 327 326 327 328 328 328 327 325 323 323 324 325 325 326 323 322 321 318 317 316
317 317 318 318 317 316 317 314 315 318 317 316 317 319 318 317 317 318 317 317 320 323 325 326 326 326 326 327 328 328 328 325 325 324 325 324 325 326 323 322 321 319 317 316
316 317 317 318 318 317 317 317 314 316 314 318 316 316 313 316 318 318 318 318 317 322 324 326 326 325 325 326 325 326 327 326 326 326 327 327 327 326 323 321 320 319 318 316
316 316 317 318 319 318 317 315 316 314 320 321 316 315 315 316 317 318 318 319 321 320 321 323 323 324 325 325 325 324 325 326 327 327 327 326 326 324 324 323 322 321 318 316
315 313 313 320 318 317 316 316 313 313 313 316 315 315 311 314 316 316 315 319 320 322 322 323 324 324 325 326 325 326 328 329 328 329 327 326 325 325 322 321 321 320 318 313
315 313 312 316 317 316 314 315 314 314 316 311 311 314 313 310 310 313 316 319 320 321 323 324 325 326 326 326 327 328 328 325 326 324 325 325 325 322 321 320 319 317 314 308
316 314 314 315 314 315 318 316 315 312 310 314 312 314 311 311 311 314 314 318 319 321 322 324 326 326 327 328 328 329 327 326 325 324 324 323 322 321 320 318 316 313 308 305
315 314 314 316 315 314 317 317 315 315 313 313 312 314 313 313 312 313 315 316 316 320 322 323 325 326 328 329 328 328 326 326 325 324 323 322 319 318 316 314 310 307 304 304
314 315 313 314 314 315 316 318 315 316 315 316 316 313 314 313 312 311 313 313 315 317 322 323 325 327 327 328 328 327 326 326 325 323 320 318 317 315 312 311 309 304 301 300
312 315 314 317 315 315 317 315 314 315 315 314 313 314 311 311 312 312 311 315 318 320 321 323 323 323 323 324 325 325 325 324 322 320 318 316 314 311 310 308 306 302 301 299
312 311 312 316 311 313 313 311 313 313 312 314 315 313 310 311 311 311 313 315 315 316 317 317 317 318 318 318 318 318 318 318 318 317 316 313 310 308 307 303 301 300 299 298
309 310 308 309 308 312 313 311 311 311 310 310 309 310 309 310 311 311 312 313 313 314 314 314 314 314 314 314 315 317 317 316 315 314 311 309 308 306 303 300 298 298 297 297
310 308 309 312 311 311 313 311 311 311 311 309 309 309 310 312 313 310 311 312 312 312 313 313 313 313 314 314 315 316 315 313 311 309 307 305 303 301 298 297 298 297 299 299
309 306 311 305 310 312 312 311 311 310 311 309 310 309 310 311 305 309 309 310 312 313 313 313 313 313 313 313 312 312 311 309 307 305 303 300 299 298 298 299 299 300 299 298
309 306 310 302 306 310 309 310 311 312 311 311 312 312 312 309 308 311 310 311 311 311 311 310 310 310 309 308 307 308 305 303 301 300 300 299 299 300 300 299 296 291 291 291
317 313 308 305 306 316 310 311 311 310 310 312 313 313 312 312 313 312 311 310 309 309 307 307 307 305 303 302 303 302 301 300 300 301 301 300 296 293 291 290 290 290 290 290
316 314 313 312 313 311 311 311 312 312 312 312 313 313 313 313 312 311 309 307 306 305 305 303 303 302 300 300 300 300 299 298 296 294 292 290 290 289 289 289 289 289 289 289
311 309 310 310 311 309 313 312 313 313 314 313 314 313 313 313 311 309 307 305 304 302 302 301 300 300 299 298 298 297 294 293 291 290 290 290 290 290 290 290 289 289 289 289
310 310 310 309 312 312 313 312 313 313 313 313 313 313 313 312 308 308 305 303 301 300 299 299 299 298 296 294 293 292 291 291 290 290 290 290 290 290 290 290 289 290 290 290
311 311 311 313 312 313 313 313 312 312 313 313 314 313 311 310 309 305 302 300 299 299 298 298 296 295 294 292 292 291 291 291 290 290 290 289 289 288 287 286 286 285 284 284

GFSCGP_850_thetae_039.txt.gz
Theta_e
317 318 319 317 317 316 318 319 319 318 317 321 325 323 326 327 328 328 328 328 327 325 322 322 323 323 323 321 322 326 326 323 324 321 315 322 323 321 324 324 324 324 323 320
318 320 317 315 316 318 318 319 319 317 315 316 317 319 321 326 328 328 329 329 329 328 326 323 321 322 322 322 323 326 326 324 324 322 319 322 325 325 326 325 325 324 321 320
319 317 317 317 317 318 318 319 318 319 317 315 317 319 320 323 325 326 327 328 328 328 328 326 323 320 321 322 324 326 325 324 324 324 323 323 324 324 325 325 325 322 320 320
318 316 318 318 318 317 320 317 317 318 318 318 314 319 316 321 325 324 326 326 328 328 327 327 326 323 323 321 322 324 326 325 325 326 326 325 324 324 324 325 324 321 320 319
320 318 319 319 318 317 320 317 318 319 318 318 318 319 318 317 322 326 325 325 327 328 328 327 327 327 326 325 323 323 324 325 326 325 326 325 326 325 325 325 322 321 319 318
317 316 317 318 316 316 317 318 315 317 319 322 319 320 321 320 320 322 323 325 326 327 328 328 328 328 328 328 327 326 325 325 326 324 324 326 326 325 325 325 323 322 319 317
317 318 317 317 319 317 317 318 321 320 324 323 319 320 322 319 316 318 319 321 324 326 327 328 328 327 327 327 327 328 327 327 326 326 326 326 326 326 325 325 324 323 321 318
318 318 318 317 319 320 318 319 322 320 322 319 318 322 320 318 317 317 318 318 317 319 324 327 328 327 326 327 326 327 329 327 327 324 324 325 325 325 326 325 325 323 321 320
318 318 316 318 318 318 318 319 316 320 317 323 319 319 317 317 319 319 319 319 318 317 318 320 323 327 327 326 326 326 327 328 328 323 324 325 325 324 324 324 324 321 320 319
318 318 317 317 318 317 318 317 321 319 323 323 319 318 318 318 318 317 319 320 320 320 319 321 322 323 324 326 324 325 325 327 327 326 326 326 326 326 325 325 324 322 321 318
316 316 315 319 320 320 318 319 316 317 318 321 320 319 317 318 317 319 317 317 320 321 321 321 321 322 323 323 324 324 324 325 325 325 326 326 326 325 325 323 322 322 321 317
317 317 318 318 316 316 316 319 319 323 319 316 318 319 315 316 314 313 315 315 318 320 321 322 322 323 324 324 324 325 325 325 325 325 325 321 322 322 322 321 321 321 320 318
317 316 318 317 317 316 319 317 315 315 315 318 325 321 314 314 315 314 313 314 316 318 321 322 323 324 325 325 325 326 327 326 326 325 324 323 322 322 322 323 320 319 318 315
315 316 318 318 318 317 319 318 316 319 320 320 319 320 318 318 316 316 315 314 314 315 319 322 324 325 326 326 327 327 327 326 325 325 324 324 323 323 321 320 318 316 315 310
317 318 316 315 314 315 316 318 317 318 319 322 321 316 318 318 317 315 313 313 315 316 320 322 323 325 326 327 327 328 327 327 326 325 324 323 320 319 317 316 313 309 305 301
313 318 314 315 314 315 318 316 317 317 316 316 316 317 315 313 312 312 311 315 317 319 320 321 322 323 323 323 323 323 322 322 321 320 318 318 316 314 313 310 306 304 302 301
315 316 316 318 312 315 318 316 316 315 315 318 319 319 314 313 312 312 313 314 313 315 316 316 316 316 317 317 317 317 317 317 317 317 317 315 314 311 309 306 306 304 301 298
313 314 314 316 312 321 317 312 313 316 315 313 313 313 312 312 310 310 311 312 312 312 313 314 314 313 313 314 314 315 316 316 315 314 313 311 309 308 306 304 302 300 299 298
311 312 313 319 318 315 314 313 314 315 316 313 313 311 310 310 310 308 309 310 311 312 312 313 313 313 314 314 314 314 314 313 312 310 308 307 305 304 303 301 302 298 300 299
309 310 319 310 319 321 317 313 310 312 316 312 311 312 312 311 317 314 308 310 311 312 312 312 312 312 312 312 312 312 311 309 307 304 303 302 300 299 299 298 299 300 300 299
314 312 317 310 319 316 313 310 311 317 319 311 311 312 312 313 311 312 309 309 309 309 310 310 310 311 310 309 308 308 306 304 302 301 300 299 299 300 300 297 293 291 291 291
318 318 317 311 317 322 310 310 316 316 311 311 311 312 311 311 310 309 308 308 307 308 308 308 308 307 305 304 304 303 302 300 300 301 301 299 295 292 291 290 290 290 290 289
320 318 319 318 321 315 310 314 313 312 312 311 312 312 312 310 309 308 307 306 306 306 306 304 305 304 302 301 301 301 300 299 297 295 293 291 290 290 290 289 289 289 290 290
311 309 317 316 315 313 312 311 312 312 312 312 313 313 313 311 309 307 305 304 304 303 303 302 302 301 299 299 299 298 295 293 291 291 290 290 290 290 290 289 289 289 288 288
313 312 312 314 312 312 312 313 313 313 312 312 312 313 312 311 308 307 305 303 302 301 300 300 300 298 296 294 294 292 292 291 290 290 290 290 289 288 287 286 285 284 283 282
311 314 315 317 314 315 315 315 314 313 313 313 313 311 310 311 310 307 304 302 300 299 298 298 297 296 293 293 292 291 291 290 290 289 287 287 286 285 284 284 283 283 282 281

GFSCGP_850_thetae_042.txt.gz
Theta_e
321 322 320 319 318 320 321 320 321 321 321 322 323 324 325 328 329 328 326 327 327 326 325 328 329 329 328 328 326 326 326 326 326 326 324 321 320 322 325 324 325 323 323 323
322 322 321 320 320 321 322 321 321 322 320 320 322 321 324 328 329 329 328 328 328 327 327 325 328 328 328 327 328 327 327 327 327 328 327 322 323 322 324 322 322 324 323 324
322 321 320 321 321 321 322 322 322 322 321 320 320 321 323 326 329 329 329 328 328 328 328 327 325 326 328 327 327 327 328 330 328 329 327 324 325 327 325 324 325 324 324 324
322 321 321 321 321 322 321 321 321 322 322 322 320 322 322 324 327 329 328 329 327 327 328 328 327 326 325 327 327 327 328 330 329 329 328 326 324 325 326 324 324 324 324 322
321 321 321 321 321 321 321 321 322 322 323 322 322 321 322 322 322 325 327 328 328 326 327 328 328 328 327 326 327 327 328 330 329 328 328 328 327 326 327 324 323 324 324 321
321 319 321 321 321 320 321 322 322 323 323 323 322 322 322 321 321 322 323 325 327 328 327 327 328 329 329 329 328 326 326 327 329 329 327 327 326 328 326 324 324 324 323 321
321 321 320 320 321 321 321 322 324 323 324 324 323 323 322 322 322 323 322 322 325 327 328 328 328 329 330 331 331 328 326 326 326 325 322 323 324 325 325 324 324 325 324 322
320 320 320 320 321 321 322 323 324 322 323 322 321 322 322 322 321 321 322 322 322 322 326 328 329 329 330 331 333 330 328 328 326 325 325 325 324 325 326 324 323 325 325 322
320 319 320 321 321 321 322 322 322 323 323 323 321 321 321 320 321 321 322 323 324 322 322 324 327 329 329 331 333 333 332 330 329 327 325 322 321 323 325 324 325 325 324 323
320 321 321 321 321 321 322 321 323 323 323 322 321 321 319 320 319 320 320 321 324 324 322 322 323 325 327 329 331 332 332 332 332 329 323 324 324 325 326 325 325 325 324 323
319 320 321 322 322 322 322 322 322 322 322 323 322 321 320 320 320 322 321 320 322 323 324 324 324 325 326 327 329 330 330 330 331 329 328 327 326 326 327 325 324 323 322 321
319 320 322 320 320 320 320 321 322 323 322 322 324 322 320 320 321 320 320 319 321 322 323 325 327 327 326 325 328 328 328 329 330 330 328 325 326 325 323 323 323 322 321 321
320 320 322 320 319 320 320 320 320 322 321 323 327 323 321 320 320 320 320 320 318 319 323 326 328 328 328 327 327 327 326 328 327 326 325 325 324 323 323 323 322 322 321 320
319 320 320 321 319 319 321 320 321 322 324 323 324 321 321 321 321 321 320 320 318 317 319 325 327 328 328 327 326 327 327 327 327 327 326 326 325 324 323 322 321 320 319 318
320 320 320 319 318 318 318 318 321 321 322 322 322 321 321 320 321 320 318 317 318 320 322 325 327 327 327 327 326 326 327 327 326 326 325 324 323 321 320 319 318 317 315 313
319 319 320 320 319 319 319 319 319 321 320 321 321 320 320 320 320 319 317 318 320 320 321 322 324 324 324 324 323 325 325 324 322 321 320 319 319 318 316 315 313 312 309 306
321 320 320 319 319 319 321 321 320 321 321 321 321 321 320 320 320 319 318 319 318 318 317 317 317 317 318 318 318 318 318 317 317 317 316 316 315 314 312 310 308 306 304 302
321 321 322 321 318 326 319 319 320 320 321 321 320 320 319 319 318 316 317 317 315 314 313 312 313 314 314 314 314 315 315 315 315 314 313 312 311 309 307 306 305 303 302 302
320 322 322 327 321 320 318 317 318 320 321 320 320 319 318 316 314 313 312 313 312 311 310 311 311 312 313 313 314 313 313 311 309 307 307 306 304 303 302 301 301 300 299 299
317 318 325 319 323 326 319 320 317 318 323 320 319 319 318 315 319 319 310 308 308 309 310 311 311 311 312 312 311 310 308 307 305 304 303 302 301 301 300 300 301 300 300 298
318 318 324 324 326 322 320 317 315 321 323 319 318 317 317 318 318 315 309 308 307 308 309 309 308 309 309 308 307 305 305 304 303 302 302 302 302 302 300 296 294 293 293 292
321 322 323 323 327 327 316 315 320 322 319 318 317 317 317 316 312 309 308 306 306 306 306 305 306 305 305 305 306 306 305 302 302 302 302 299 294 292 291 291 290 290 291 291
322 322 324 322 323 322 315 320 318 319 319 317 317 316 316 312 310 308 307 306 305 305 304 304 304 304 302 302 302 303 303 302 301 298 294 292 291 290 290 290 290 292 292 291
318 314 321 320 321 320 318 317 316 315 316 316 315 316 314 311 309 307 306 305 304 304 303 302 301 301 300 298 299 301 299 296 294 292 291 290 290 290 289 288 287 287 286 286
320 315 319 321 321 317 317 317 317 315 313 313 314 315 313 311 308 307 305 304 303 302 301 300 299 298 297 299 299 296 293 292 291 290 290 289 288 287 286 286 285 284 283 283
316 319 321 325 322 321 321 319 317 315 313 313 313 313 312 310 308 306 304 303 302 300 299 298 296 297 297 296 294 292 291 290 290 289 287 287 286 285 284 284 284 283 282 281

GFSCGP_850_thetae_045.txt.gz
Theta_e
321 323 323 321 320 320 321 321 322 323 322 321 323 324 325 329 329 326 327 325 326 326 325 328 325 324 324 324 324 324 323 322 323 324 324 322 320 320 322 324 326 327 327 324
323 324 322 321 320 320 321 321 321 322 322 322 322 323 323 328 328 327 326 327 325 325 328 328 329 326 327 326 326 325 325 325 326 327 327 324 322 320 322 324 326 325 326 326
323 323 322 320 320 321 322 322 323 322 323 322 322 322 322 325 327 327 326 325 326 325 325 327 328 328 327 326 326 326 326 327 327 328 327 326 323 322 322 324 326 325 326 326
322 322 321 321 321 321 322 322 321 322 322 323 323 324 324 324 327 329 327 326 326 326 326 325 326 329 329 328 328 328 328 328 327 327 328 327 323 325 327 325 325 327 327 326
322 322 322 322 321 322 322 322 322 323 324 324 323 321 324 323 324 326 328 327 326 326 326 327 325 324 328 329 329 329 329 328 329 329 328 328 327 326 327 327 327 327 327 325
321 321 322 322 321 322 322 323 323 324 324 326 323 323 324 323 321 321 325 326 327 326 326 327 327 326 325 326 328 329 329 329 329 330 329 330 329 327 327 327 327 326 325 322
321 322 321 321 322 322 322 324 325 325 326 326 324 323 323 324 322 322 323 323 325 327 326 326 327 328 328 327 327 328 328 327 329 330 328 328 328 325 324 327 328 325 324 322
322 322 322 322 321 323 323 324 326 330 326 325 324 322 322 323 322 322 322 323 323 325 327 327 326 327 328 329 330 330 330 329 329 331 330 319 322 322 321 321 323 325 324 323
322 322 321 321 321 322 323 324 324 325 325 324 323 322 322 321 321 321 322 324 325 325 324 326 327 327 328 330 332 332 332 332 331 330 329 324 323 323 322 322 324 325 324 322
321 322 321 321 322 322 323 324 324 324 325 327 322 323 322 321 321 320 320 322 323 325 324 324 326 327 328 330 331 333 335 334 333 331 330 326 325 323 321 321 324 324 324 322
321 321 322 323 323 323 323 324 323 324 324 326 326 323 322 321 321 321 322 320 321 322 325 325 325 326 327 329 331 333 336 335 334 332 330 329 325 324 324 324 324 325 323 322
320 322 324 323 323 322 322 323 323 325 324 324 325 325 322 322 321 321 321 321 321 321 323 325 327 328 328 329 329 332 334 334 334 333 332 331 326 325 325 326 326 325 322 321
320 320 324 323 323 322 322 323 323 324 323 324 330 325 322 321 321 320 320 321 321 321 322 325 328 330 330 330 331 332 332 332 332 332 331 330 329 327 328 326 325 324 322 321
320 320 321 324 324 322 321 321 321 322 326 324 323 322 322 322 322 321 321 321 321 321 320 324 327 329 330 331 331 331 332 332 332 331 330 328 327 324 324 323 322 321 320 318
321 321 320 320 321 321 321 321 321 321 321 323 322 322 322 322 321 320 321 320 319 320 320 322 327 328 330 330 331 331 328 327 326 326 325 324 322 320 319 317 316 317 318 316
320 321 321 320 321 320 319 319 319 319 320 321 321 321 321 320 319 319 320 320 320 322 323 325 327 329 330 329 328 326 325 323 322 321 319 317 316 315 314 314 315 313 311 310
320 323 321 323 321 321 323 319 319 319 320 321 321 321 321 321 320 320 320 320 322 322 323 324 326 327 327 325 324 322 320 318 317 315 313 312 313 314 313 312 310 308 306 303
322 322 322 324 322 325 320 320 320 319 320 320 320 321 321 320 319 320 320 320 321 321 321 320 320 320 321 320 318 316 315 314 312 311 310 311 311 312 310 308 306 304 303 303
319 324 324 327 325 320 319 320 320 320 320 320 320 320 320 320 319 319 318 320 319 318 317 317 316 316 315 315 314 313 312 311 310 309 308 308 307 306 304 303 303 302 301 301
320 321 326 324 324 325 321 320 319 320 323 320 320 320 320 319 322 320 317 317 316 315 314 313 313 313 313 312 312 311 310 309 307 307 306 305 304 304 303 302 302 301 299 297
320 321 327 326 325 322 320 320 320 323 322 321 320 319 318 319 320 319 316 314 313 312 312 312 312 312 311 311 310 309 308 307 306 305 304 304 303 303 301 299 298 297 297 296
322 322 326 325 327 328 320 320 321 322 321 322 321 319 319 318 319 316 314 313 312 311 310 311 311 310 310 309 309 307 306 304 304 304 303 300 297 295 296 296 295 294 295 295
321 321 325 323 324 323 319 320 319 320 321 322 321 320 319 320 317 315 313 312 311 310 310 310 310 309 308 307 306 305 303 303 302 299 296 295 295 294 294 295 294 294 293 292
317 319 323 322 322 322 322 319 320 321 321 322 321 319 319 319 316 314 312 311 310 310 310 309 308 307 306 305 304 302 301 299 297 296 296 294 294 293 292 291 290 290 290 288
319 320 320 321 320 320 320 321 321 321 320 320 319 318 319 318 315 313 312 311 310 310 309 307 306 304 303 301 300 298 297 297 296 294 293 292 290 289 289 288 287 286 286 284
317 319 324 323 319 322 323 321 320 321 320 318 317 317 318 316 314 313 311 310 309 308 306 305 303 301 299 298 297 296 295 295 293 291 290 289 288 288 287 287 287 285 284 283

GFSCGP_850_thetae_048.txt.gz
Theta_e
319 320 321 322 322 321 319 320 323 324 324 325 322 324 326 324 326 326 326 327 326 326 326 325 322 320 319 318 318 316 315 314 314 314 314 321 321 321 320 321 321 324 323 321
321 323 323 323 322 321 320 320 321 322 324 322 320 322 327 326 328 326 326 327 325 326 327 325 323 321 322 322 320 318 318 320 320 319 321 323 322 319 321 322 323 325 326 324
322 323 324 322 322 320 320 321 322 324 323 323 322 321 325 328 326 326 326 326 326 325 327 326 325 324 323 324 324 324 322 321 322 322 321 325 322 321 320 322 323 325 326 324
322 322 323 323 320 320 320 321 322 322 322 322 323 324 323 323 327 327 326 326 326 325 327 327 328 326 326 325 325 325 325 324 322 324 326 325 325 323 321 321 325 325 324 324
322 322 322 323 321 321 321 323 323 322 322 323 323 325 323 323 325 327 327 326 327 326 326 329 329 329 327 327 327 325 326 325 326 325 329 327 327 323 323 323 323 325 325 324
320 321 322 323 322 322 322 322 323 323 323 326 324 324 325 324 325 324 327 327 326 327 326 326 327 328 329 329 328 327 326 326 328 327 325 328 327 326 325 328 327 326 326 326
320 321 322 322 322 322 322 323 326 326 327 328 324 324 325 324 324 324 327 327 327 326 326 327 326 325 328 329 329 329 329 329 329 329 329 327 328 327 326 326 327 327 321 322
321 322 321 322 321 323 322 323 328 331 331 330 326 325 324 324 323 322 322 322 326 327 326 326 327 327 325 326 329 329 329 328 329 329 330 329 322 322 320 324 326 325 323 319
321 322 321 322 321 322 323 324 324 328 326 330 327 325 324 323 321 321 322 323 324 323 327 327 327 328 328 326 326 327 328 330 329 329 329 327 321 321 322 326 323 323 321 320
321 324 322 322 322 322 322 323 325 326 329 330 323 322 323 322 321 320 320 322 324 325 325 326 327 327 328 329 328 328 328 328 329 329 329 330 327 324 323 323 323 323 322 324
320 322 323 322 321 321 322 324 325 326 325 329 329 325 324 323 322 322 322 321 321 323 325 325 325 326 328 328 330 330 330 330 331 331 331 330 330 326 325 323 324 324 324 324
320 323 324 322 322 322 323 323 325 327 326 329 334 327 324 323 323 322 322 321 321 321 323 326 326 326 326 328 330 334 333 334 334 333 333 332 330 330 327 325 323 326 324 323
320 321 323 323 324 323 322 323 323 325 326 328 330 326 323 323 322 321 321 321 321 321 321 324 327 328 328 329 329 331 334 335 333 333 333 332 330 328 327 327 326 323 322 321
320 321 321 325 325 324 323 323 324 325 327 326 327 325 323 322 323 321 321 320 320 321 321 321 326 329 330 330 331 332 333 334 333 331 330 331 330 328 327 325 323 321 321 320
322 324 322 321 321 323 323 323 322 322 323 325 324 322 323 322 323 322 322 321 321 320 320 321 323 329 331 332 332 332 332 332 332 330 330 331 329 324 323 321 320 320 319 317
320 322 322 322 321 321 323 323 321 321 321 321 322 322 322 321 321 322 320 320 321 320 320 321 322 328 330 331 331 332 331 330 328 327 326 325 322 320 317 316 314 314 315 314
321 324 322 322 321 321 321 323 322 321 320 321 321 323 322 321 322 321 320 320 320 320 322 324 326 330 331 331 330 327 326 325 324 323 322 319 317 316 315 314 313 311 309 308
322 322 323 323 322 324 321 322 321 321 320 320 320 320 321 321 321 320 320 320 321 322 323 325 328 329 329 327 325 323 321 320 319 317 315 314 314 313 312 310 309 307 305 304
319 322 327 325 322 322 320 321 320 321 320 320 320 320 320 320 320 321 320 320 322 322 323 324 324 325 324 322 320 318 316 314 313 312 311 311 311 310 308 307 306 304 303 302
319 321 324 327 323 323 322 321 319 321 321 321 320 321 321 321 323 321 320 320 322 321 320 320 320 320 318 317 315 314 313 311 310 310 309 308 307 306 305 304 303 303 302 301
321 320 324 324 325 326 320 320 319 322 322 321 321 320 321 321 320 320 319 320 319 318 317 317 316 315 315 314 313 312 311 309 308 307 306 306 305 304 303 302 299 299 298 298
321 322 323 324 325 326 321 320 321 322 321 321 321 322 320 320 320 319 319 318 317 316 315 314 314 314 313 312 311 310 309 307 307 306 306 305 303 300 299 297 296 296 295 295
320 318 322 322 323 323 320 320 320 320 322 322 322 322 321 320 320 319 317 316 315 314 313 313 313 312 311 311 310 308 307 306 306 304 301 298 296 296 296 296 295 295 295 294
316 319 321 319 319 321 322 321 320 320 319 321 322 322 321 320 320 318 316 315 314 313 312 312 312 311 310 309 308 307 305 304 301 298 297 296 295 294 294 293 292 292 291 290
317 317 320 320 319 318 317 317 320 321 321 321 320 320 320 320 320 317 315 314 313 312 312 312 310 309 308 307 306 304 302 300 298 297 296 295 294 292 291 290 290 289 288 286
317 317 319 323 319 320 321 320 320 320 318 319 321 320 319 319 320 317 315 313 312 312 311 310 309 307 306 304 302 300 299 298 296 295 294 292 290 290 289 289 288 287 286 285

GFSCGP_850_thetae_051.txt.gz
Theta_e
317 315 316 315 316 318 318 318 316 318 321 322 323 326 322 323 325 325 326 328 326 326 325 322 320 319 319 318 318 318 319 317 316 317 315 314 316 317 315 315 314 315 315 316
316 317 317 319 320 321 321 318 317 323 324 322 322 325 323 325 325 325 326 325 324 325 324 322 319 318 318 318 318 318 317 317 316 314 313 314 315 318 319 315 318 321 321 321
318 319 319 320 321 321 319 318 318 322 322 320 320 325 326 324 327 326 326 326 325 325 324 323 319 318 318 318 317 316 315 315 314 314 314 316 321 322 320 319 320 321 321 324
318 319 320 321 322 320 317 318 321 322 321 319 319 319 326 327 328 327 326 325 325 327 326 324 323 321 321 320 318 318 316 315 315 316 316 317 322 324 321 318 320 322 324 324
319 320 320 321 322 320 318 321 322 322 320 319 320 320 320 327 327 326 325 326 324 327 326 325 324 323 323 323 323 322 319 319 319 319 320 320 321 323 322 321 319 321 322 323
318 320 319 319 321 321 320 322 322 322 320 321 321 321 323 323 322 325 325 324 325 325 326 326 325 325 324 324 323 323 324 323 322 318 321 323 323 325 324 323 322 320 323 324
318 319 319 319 320 321 319 320 321 325 322 322 324 324 321 321 322 324 324 325 325 326 326 326 326 326 326 325 324 325 324 324 324 323 323 324 326 326 326 324 323 324 323 325
318 319 319 319 320 320 320 319 322 328 325 327 325 325 322 321 322 322 323 325 325 325 326 326 327 327 328 328 327 327 326 325 325 325 326 326 324 325 327 323 326 326 325 325
318 319 319 319 320 319 320 320 320 327 326 327 325 324 322 322 319 320 321 322 325 325 325 326 326 327 327 328 328 328 327 326 326 326 326 327 326 325 326 326 327 326 324 324
319 320 319 319 319 319 319 320 321 325 328 331 325 325 322 321 320 318 319 320 323 325 326 326 326 326 326 326 326 328 329 328 328 329 329 329 328 327 327 323 327 323 323 324
317 318 319 320 321 321 320 320 321 323 324 323 323 322 321 321 321 318 316 321 323 323 324 325 326 326 327 326 326 328 329 329 329 328 328 329 329 329 328 325 322 323 324 324
318 320 318 318 320 320 320 320 321 323 325 325 318 322 321 318 319 319 319 320 321 324 325 323 324 326 327 327 326 326 325 325 326 328 329 329 329 327 329 328 326 324 323 324
318 318 318 319 319 320 320 320 321 323 324 324 322 324 322 321 320 320 320 321 321 321 323 325 323 323 325 328 329 327 327 326 323 323 329 329 328 328 328 328 327 326 326 323
318 318 318 318 320 323 323 322 321 322 321 323 322 324 322 322 320 318 319 320 320 321 321 325 326 324 323 325 331 331 330 329 329 329 330 330 329 330 330 328 326 325 323 323
318 318 318 319 319 321 323 323 321 322 323 323 323 323 322 319 318 320 321 321 321 321 321 322 326 326 326 325 330 332 333 333 332 332 332 331 329 330 328 326 325 323 321 321
318 319 318 319 320 321 320 320 321 321 322 323 322 322 321 320 321 321 321 321 320 320 319 319 320 328 330 330 329 331 332 332 331 330 330 330 330 331 328 325 322 321 320 319
320 318 319 319 319 319 318 319 320 321 321 319 319 318 318 319 318 319 320 320 320 320 320 319 320 329 331 331 331 331 330 331 331 331 330 329 329 326 324 320 319 316 316 315
320 319 317 317 318 320 318 318 320 321 321 318 317 317 317 317 319 320 320 319 320 320 321 322 323 328 330 330 330 330 330 328 327 327 327 325 323 323 320 316 313 313 311 309
318 318 318 319 319 319 319 320 320 319 319 318 317 316 316 318 319 320 320 320 321 321 322 323 326 330 330 331 330 330 327 326 324 323 321 321 320 317 314 313 310 308 306 304
319 319 318 316 319 320 318 319 319 318 319 317 317 317 317 318 315 314 320 319 321 322 322 323 327 328 328 328 327 326 324 322 321 320 317 314 313 312 310 308 306 304 303 302
319 316 318 314 316 318 319 318 319 320 318 318 319 319 320 316 317 319 319 319 319 320 322 323 324 325 325 324 323 321 319 317 315 312 311 310 309 309 307 306 304 303 302 300
317 318 315 318 320 321 317 319 318 317 318 318 319 320 320 320 319 319 319 319 320 320 321 320 321 321 320 319 318 316 314 312 310 309 308 307 306 306 305 303 299 299 299 298
317 317 317 317 316 318 317 318 320 320 321 320 321 322 321 320 319 319 319 319 319 319 318 318 318 317 315 315 314 312 311 309 309 308 307 306 305 303 301 299 298 297 297 296
314 315 315 317 317 315 314 316 315 318 317 320 321 320 321 321 320 319 319 319 318 317 316 315 315 314 313 312 312 311 309 308 307 306 305 302 300 298 297 296 295 295 295 295
312 314 317 317 316 316 315 314 315 317 319 319 319 319 320 319 321 320 318 317 316 315 314 314 313 312 312 311 310 309 308 307 305 303 299 297 296 296 296 295 294 294 294 292
313 313 315 313 317 317 317 317 317 318 317 317 318 318 320 319 320 319 318 317 315 314 313 313 312 311 310 309 308 307 306 304 301 298 296 295 295 293 293 292 291 290 288 287

GFSCGP_850_thetae_054.txt.gz
Theta_e
316 315 314 313 313 315 316 316 316 316 318 324 323 322 321 322 325 328 327 325 322 322 323 321 320 320 320 320 320 320 320 319 317 316 314 314 313 317 316 315 315 316 319 320
315 316 315 315 315 317 317 318 318 316 321 320 321 323 322 321 323 324 326 326 325 324 324 321 320 319 319 319 319 318 319 318 316 316 317 317 317 316 315 316 315 316 316 316
315 317 316 316 316 318 318 319 317 317 320 320 321 322 326 324 324 324 326 327 326 322 322 321 319 319 319 318 318 319 318 317 316 318 317 316 316 314 315 314 314 315 315 315
316 316 317 318 318 318 319 318 317 319 318 318 316 318 323 324 323 325 326 325 324 324 322 320 319 318 318 318 318 318 319 317 316 318 316 316 315 315 316 315 314 314 314 316
318 318 318 318 318 318 319 319 318 321 320 319 319 318 317 324 325 325 325 325 323 323 323 321 318 317 317 317 317 317 317 318 318 316 314 314 314 316 317 317 315 315 314 319
316 317 316 317 318 318 319 320 319 318 318 320 320 318 319 326 326 326 324 325 324 324 324 324 320 319 317 318 317 316 314 316 317 315 314 314 316 319 319 317 320 318 316 321
316 316 316 317 318 318 319 317 319 321 321 321 320 323 320 322 324 326 324 324 324 325 325 325 323 321 321 320 319 317 317 316 315 315 316 318 319 318 319 322 322 321 319 319
317 319 317 317 317 318 318 318 319 324 324 324 323 324 320 320 319 325 325 324 324 324 326 325 325 323 323 322 322 321 320 319 318 318 318 318 319 319 319 322 325 324 322 322
317 318 317 317 317 317 319 319 318 323 324 323 323 322 319 320 320 318 323 324 323 324 324 325 325 324 324 324 324 323 323 323 322 321 321 319 318 320 324 325 325 326 324 323
316 318 317 317 317 316 318 319 321 322 326 326 325 325 321 320 318 316 316 321 323 324 324 324 325 325 325 325 324 325 324 324 324 324 323 322 322 323 324 324 325 326 324 324
315 316 318 318 318 318 318 318 320 321 322 322 322 321 318 318 319 316 314 319 322 324 324 324 325 325 325 326 325 325 325 325 325 325 325 325 325 325 325 325 326 325 325 324
315 316 317 317 317 317 317 319 319 322 323 321 317 321 318 317 317 318 318 320 323 324 324 325 325 325 326 326 327 327 327 327 327 326 324 323 326 325 325 326 326 326 320 324
316 316 317 318 317 318 317 318 319 321 320 323 322 322 319 317 318 321 320 319 320 323 324 325 325 325 325 326 326 327 327 327 327 327 325 323 327 328 327 325 324 325 325 321
318 317 317 318 318 318 321 319 319 320 319 321 321 322 320 320 320 320 319 318 320 323 324 324 325 326 325 326 326 326 326 327 328 328 325 323 323 328 328 327 323 323 325 326
319 318 318 317 318 318 318 320 321 319 319 321 321 322 321 319 318 318 320 320 320 320 321 324 325 326 327 327 326 326 327 326 326 328 326 326 324 326 329 328 327 323 325 324
318 320 316 318 318 319 318 317 320 320 320 321 320 321 319 320 320 317 319 320 320 320 320 320 322 324 326 325 325 324 325 329 327 327 327 327 325 327 328 327 327 327 325 323
318 319 318 319 317 318 318 318 318 318 319 320 321 320 319 319 318 318 319 321 320 320 320 320 321 322 326 326 326 326 326 328 330 330 329 329 329 329 327 326 326 324 323 320
317 317 318 315 316 320 318 317 317 317 318 318 317 316 316 316 319 319 321 320 320 320 320 320 319 319 325 328 329 329 330 330 328 328 329 328 327 326 327 325 323 321 319 317
316 317 316 315 317 317 317 317 317 318 317 317 316 316 315 318 316 318 319 319 320 320 320 319 319 320 324 329 330 331 331 330 329 329 329 327 326 325 323 322 319 318 316 314
318 317 315 316 318 318 316 316 318 317 317 316 316 317 316 315 313 313 320 319 319 320 320 320 321 322 327 330 331 330 330 328 327 327 327 325 324 322 322 319 316 314 311 309
316 316 317 316 316 315 316 316 318 319 317 317 317 318 318 315 316 319 319 320 319 319 319 320 321 322 327 330 330 329 328 327 326 324 323 322 320 318 317 314 312 310 306 304
313 316 316 315 318 317 317 319 318 316 318 318 319 320 318 319 319 318 319 319 318 319 320 321 322 326 328 329 329 328 326 325 322 320 319 317 315 313 311 310 308 306 304 303
313 312 315 315 316 315 317 318 317 316 318 319 318 319 321 320 318 318 319 319 319 320 320 321 323 324 325 325 325 324 322 320 318 316 313 311 310 309 308 306 304 302 301 300
311 311 313 314 315 316 316 316 314 315 316 316 318 318 319 320 319 318 319 319 320 320 320 320 320 321 320 320 319 318 317 315 313 311 310 308 307 305 304 302 301 300 299 298
310 314 315 314 314 315 315 315 313 313 315 315 317 318 317 318 319 320 318 319 319 319 319 318 318 318 317 316 315 314 313 312 310 309 307 305 304 303 300 298 298 297 297 296
311 313 314 313 314 315 314 314 315 314 315 316 316 317 317 316 318 319 319 318 318 318 317 316 316 315 314 313 312 311 310 309 308 306 305 303 301 299 297 296 295 294 293 292

GFSCGP_850_thetae_057.txt.gz
Theta_e
314 313 314 314 312 313 315 315 315 314 315 320 321 320 319 323 327 327 327 326 324 320 322 321 320 320 320 319 322 322 321 320 319 315 314 319 321 321 316 316 321 320 318 317
313 314 314 314 313 314 314 315 316 316 316 320 319 319 320 319 322 327 327 327 326 322 322 322 320 320 320 319 319 320 321 319 315 314 318 319 322 321 317 316 316 319 319 319
314 315 315 315 315 315 315 316 316 317 317 319 320 318 323 321 322 324 326 327 327 324 323 322 320 319 318 318 317 318 320 320 315 313 314 317 317 316 316 317 316 316 317 319
315 315 315 315 315 315 316 316 317 316 316 318 316 317 315 322 322 323 324 325 327 326 324 321 318 318 319 319 319 318 319 320 318 317 317 316 314 315 316 316 317 315 315 315
317 316 316 316 316 316 317 318 318 317 318 317 317 316 315 322 324 321 322 325 325 327 325 321 319 317 317 318 319 319 318 319 318 317 317 316 314 315 314 315 316 315 315 315
315 315 315 315 316 316 317 318 318 317 316 319 318 317 317 323 323 321 321 324 325 326 326 321 320 318 317 316 317 318 319 319 318 318 317 317 317 317 316 316 315 315 314 314
313 313 314 315 316 316 316 316 318 318 319 320 319 320 317 317 320 321 321 324 325 325 326 323 322 319 318 317 316 316 317 318 318 318 318 318 317 317 316 314 314 314 314 314
313 315 314 315 316 317 317 316 318 321 321 320 321 323 320 317 318 320 323 323 324 325 325 325 323 322 319 318 316 316 315 315 317 318 317 315 315 316 314 315 316 315 315 318
315 316 316 315 316 316 317 317 317 320 321 323 321 320 319 317 317 319 323 324 323 324 324 325 325 324 323 319 319 316 316 316 315 317 316 314 314 314 315 316 317 318 319 321
314 317 317 316 316 315 317 317 320 320 325 325 321 323 321 320 318 316 317 322 324 323 324 324 325 325 325 323 321 320 317 316 316 315 316 315 315 316 317 318 318 319 320 321
313 315 315 316 316 316 316 317 319 320 319 320 321 319 316 319 318 316 313 316 322 323 323 324 324 325 325 325 324 322 321 320 318 317 316 316 316 316 317 317 317 318 320 322
314 315 316 316 315 316 316 317 318 319 321 318 315 319 316 316 315 316 315 316 319 321 323 324 324 324 325 324 325 324 323 322 322 322 321 321 320 319 319 320 320 322 321 323
318 316 317 317 315 315 316 315 316 318 317 320 320 321 317 317 315 317 317 320 320 321 321 322 323 323 324 325 325 324 324 324 324 324 324 324 324 323 323 323 323 323 323 319
318 317 316 318 317 316 318 317 316 318 318 318 320 319 319 318 319 317 320 321 321 319 323 323 323 324 324 324 325 325 325 325 325 325 325 325 325 325 325 324 324 325 325 325
318 319 319 316 316 317 318 318 316 317 318 319 318 319 319 318 318 318 321 320 320 319 319 322 323 324 324 324 324 325 325 325 326 326 326 326 326 326 326 325 325 326 326 323
317 318 317 316 317 316 317 317 317 317 317 318 318 318 317 319 320 318 320 321 320 320 319 322 323 324 323 323 323 323 323 324 325 326 326 326 327 327 327 324 325 328 327 326
316 316 317 318 317 316 317 317 317 317 318 319 320 318 318 318 316 317 319 319 320 320 320 320 320 324 324 323 323 323 323 323 323 324 326 327 327 328 327 326 327 326 326 326
316 316 316 318 315 321 318 316 316 317 316 316 317 317 316 316 318 318 319 318 320 321 321 320 320 320 322 324 324 324 325 325 325 326 326 326 327 327 327 326 324 324 325 324
314 315 315 319 319 316 318 316 316 316 317 315 316 316 314 315 316 315 318 318 318 321 321 320 319 320 320 324 323 325 326 327 327 328 328 328 328 327 326 324 325 325 324 324
314 312 313 314 318 319 315 314 315 315 317 314 314 315 315 314 316 314 318 318 318 319 319 319 319 319 320 320 321 324 327 329 329 329 328 328 327 327 326 326 322 322 321 320
315 314 316 316 317 314 315 315 317 319 318 315 316 317 316 316 319 320 319 319 318 319 319 319 318 318 319 321 322 327 329 330 330 330 329 326 326 325 325 325 323 320 317 314
311 313 314 314 316 316 314 314 319 315 316 317 318 317 317 318 319 320 319 318 318 319 318 318 318 318 318 320 324 328 329 329 328 327 327 325 325 324 322 321 318 314 312 309
310 308 310 311 313 314 312 313 312 313 316 316 316 318 317 317 318 318 319 319 318 319 318 317 317 318 320 322 325 328 328 327 325 324 322 321 319 317 314 313 311 309 305 303
308 309 309 311 310 312 311 311 311 311 315 315 315 315 318 316 316 318 318 317 318 319 320 320 320 322 324 327 327 326 326 325 322 320 317 315 312 310 308 306 304 303 301 301
306 309 310 310 310 311 312 312 314 314 316 315 316 317 316 317 317 316 318 319 318 319 320 321 321 323 324 324 324 323 321 320 317 314 312 309 307 306 304 303 302 302 301 300
309 310 311 309 311 310 313 314 315 315 313 315 316 316 316 315 316 317 317 318 317 317 319 319 320 321 320 320 318 317 316 315 313 311 308 307 306 304 303 302 300 298 298 297

GFSCGP_850_thetae_060.txt.gz
Theta_e
313 312 313 313 312 311 312 314 314 312 312 316 315 317 317 319 325 323 324 326 326 324 320 321 319 320 321 322 323 323 324 325 320 323 315 322 321 322 319 317 317 316 318 317
312 314 313 313 312 313 313 314 313 313 314 315 315 317 316 319 321 323 323 324 326 324 321 320 320 320 320 321 320 321 322 323 319 317 321 317 319 317 317 318 318 319 318 319
314 314 313 313 313 314 313 313 314 315 314 314 318 318 318 319 319 322 326 326 326 326 322 321 321 321 319 319 319 319 319 321 322 316 320 320 318 317 317 320 317 315 316 319
313 314 314 313 314 313 314 313 314 315 315 316 316 318 314 316 320 321 322 325 326 326 324 322 321 319 318 318 319 318 319 320 320 320 317 318 316 317 319 317 315 317 315 319
315 314 314 315 314 313 314 314 315 316 314 316 316 315 314 321 320 319 319 322 323 324 326 325 322 319 317 318 318 319 319 320 320 318 317 316 317 319 320 317 315 315 316 316
313 314 313 315 314 313 316 317 316 315 314 318 317 316 315 316 319 319 319 321 322 324 325 326 324 320 317 317 318 319 319 319 319 318 316 316 318 318 320 318 317 316 314 315
313 314 313 315 315 314 315 315 317 318 319 320 316 317 318 316 315 318 318 320 322 322 324 325 325 321 318 317 316 317 319 319 319 318 316 317 315 316 316 316 315 315 315 315
313 313 312 312 314 314 315 316 317 321 320 318 319 322 320 317 317 318 318 320 321 323 323 324 325 324 320 317 316 316 317 319 319 318 317 317 317 316 315 315 314 313 313 316
313 312 313 313 314 315 315 316 315 317 319 321 319 318 317 316 316 316 319 321 322 323 323 324 324 325 324 321 318 316 316 316 318 318 318 318 317 317 317 317 317 317 316 316
314 316 316 315 314 314 316 315 319 317 323 324 319 321 318 317 317 315 317 321 323 323 323 323 324 324 325 324 322 318 316 315 316 316 317 318 317 317 317 317 317 317 315 314
313 313 315 315 315 314 315 315 317 317 317 319 320 318 315 317 317 317 314 317 321 323 323 324 324 324 324 325 324 323 320 318 315 315 316 316 315 314 314 315 315 315 314 315
313 313 315 315 314 314 314 315 316 317 318 317 316 318 315 314 315 314 315 316 316 318 320 322 323 324 324 324 324 325 324 321 321 317 315 315 316 315 315 315 315 315 315 316
318 314 315 315 314 314 314 314 315 316 315 317 320 319 316 315 316 316 316 319 319 319 319 321 322 323 323 324 324 324 324 324 323 322 320 318 316 315 316 316 315 315 315 316
317 318 315 317 316 315 316 315 314 316 316 316 316 318 317 318 317 317 317 319 320 321 319 319 320 321 322 323 323 323 324 324 324 324 323 322 322 321 320 318 318 319 318 319
316 318 318 318 317 317 316 317 315 315 315 316 316 316 317 316 316 316 321 321 320 321 321 320 321 322 323 323 323 323 323 322 323 324 324 324 324 323 323 322 322 323 324 324
315 316 315 316 317 317 317 314 314 314 315 315 316 316 314 316 317 317 318 319 319 320 321 321 320 321 322 322 322 322 322 322 322 323 323 323 324 324 324 324 324 324 325 325
313 313 314 318 316 316 316 316 315 316 315 315 317 316 315 316 315 316 319 320 320 321 321 321 321 320 320 322 321 322 321 323 323 322 323 324 324 325 325 325 325 325 325 325
314 314 312 315 314 319 316 313 314 315 315 314 315 316 316 316 319 318 317 317 319 320 318 321 321 320 320 321 322 322 322 323 323 323 323 323 324 325 325 325 326 325 326 325
314 313 314 313 313 313 313 315 314 316 316 314 313 313 313 316 314 315 318 318 318 318 318 317 319 320 320 319 320 323 323 324 324 324 324 324 324 325 326 326 326 325 325 322
311 311 311 315 314 314 311 314 314 316 316 314 314 314 313 313 313 312 319 319 319 319 318 318 318 319 318 319 319 319 324 325 325 326 326 326 326 326 326 325 325 325 322 322
313 313 315 314 314 312 312 313 315 319 312 313 314 315 315 313 312 316 317 319 318 319 319 318 318 318 318 318 319 320 323 325 326 327 327 328 327 325 324 324 321 321 321 320
312 313 310 312 314 312 312 314 319 315 314 314 314 314 315 316 316 317 318 318 318 318 318 318 318 318 317 318 320 321 322 324 327 328 328 328 327 324 322 322 323 321 319 318
308 308 308 309 310 309 312 313 311 312 314 315 314 313 314 315 316 316 316 318 318 318 317 319 319 321 319 321 321 322 324 327 328 329 328 326 324 323 321 318 318 315 313 312
306 307 308 308 308 309 310 311 311 311 311 311 312 314 314 314 316 316 316 317 318 317 318 319 322 322 322 321 322 324 326 327 326 326 325 323 322 319 317 313 311 310 309 307
304 307 308 307 309 310 311 311 311 311 312 313 313 312 314 316 315 316 316 317 317 317 316 318 321 322 322 320 324 325 325 325 324 323 321 319 317 314 312 309 306 304 303 302
306 308 307 306 309 308 309 309 309 309 308 310 312 313 313 315 314 315 314 314 315 316 315 315 317 319 320 321 321 321 321 320 319 318 315 313 310 308 307 307 306 303 302 301

GFSCGP_850_thetae_066.txt.gz
Theta_e
316 318 319 318 318 318 318 318 319 318 318 317 318 320 322 322 323 327 327 329 329 328 327 323 320 320 322 324 325 326 326 326 324 323 321 319 320 321 317 319 320 313 314 316
319 320 318 318 318 317 317 318 318 318 318 318 317 321 322 322 323 324 327 328 329 328 327 323 321 320 322 323 324 325 325 324 325 323 320 320 318 321 318 317 321 317 315 316
318 317 318 318 317 316 317 317 318 318 318 318 319 321 322 322 323 324 325 326 328 328 327 324 322 320 321 322 323 325 324 325 325 324 321 320 318 319 319 317 316 316 317 316
314 314 316 318 318 317 317 317 317 318 318 317 321 322 322 322 322 323 324 326 326 327 327 326 323 321 322 322 322 324 324 324 324 324 322 320 319 317 321 319 317 315 315 320
316 313 314 316 317 317 318 317 318 318 319 318 318 322 321 321 321 321 322 324 327 327 328 327 325 322 321 321 321 322 322 323 324 324 321 321 318 317 319 320 319 315 317 320
315 315 314 315 316 317 317 317 317 318 318 321 320 322 322 321 322 321 322 323 325 327 328 327 326 324 322 321 321 321 321 322 323 323 323 322 320 319 319 320 317 319 318 318
313 315 316 316 316 317 317 318 321 321 322 321 322 323 323 322 321 322 323 323 324 326 328 328 326 324 322 321 320 320 321 321 321 322 322 322 320 317 321 317 315 320 318 316
312 316 316 317 317 317 317 318 322 322 324 324 322 323 322 322 322 322 322 322 322 325 327 327 327 326 323 321 321 320 321 321 320 321 321 320 320 319 320 314 320 320 319 318
314 315 316 316 317 318 318 320 320 322 324 324 324 322 322 321 322 322 322 323 324 324 326 327 327 326 325 321 321 321 321 322 321 320 320 322 320 319 318 318 319 319 317 317
314 316 316 316 316 318 319 319 320 321 324 325 324 323 322 321 322 321 324 323 324 325 326 327 327 327 326 323 321 321 321 321 322 321 321 321 321 320 320 320 320 319 318 318
314 316 318 316 317 318 319 320 320 321 321 324 325 324 322 322 322 322 323 322 323 325 326 327 327 327 327 325 322 320 319 320 321 321 321 321 321 321 321 320 320 319 318 318
314 317 318 317 317 317 318 319 320 322 323 322 324 324 321 322 323 322 322 321 322 320 323 326 327 327 327 326 324 322 320 320 320 320 321 321 321 321 320 320 320 319 318 318
317 316 316 316 317 317 318 318 318 319 320 322 326 322 321 320 321 322 322 321 322 322 321 322 326 327 327 327 326 324 323 321 320 320 320 320 319 319 319 319 319 319 319 319
315 318 316 315 315 317 318 317 318 319 321 320 320 320 320 320 320 320 321 321 322 322 322 322 324 325 326 326 326 325 324 323 322 321 320 320 318 317 318 318 318 318 318 318
313 320 320 319 319 318 319 319 319 318 318 320 320 320 319 319 320 320 319 320 321 320 320 321 321 323 325 326 326 326 325 324 323 322 322 322 320 318 317 317 316 317 318 318
310 317 315 316 316 317 319 319 319 319 319 319 319 320 319 319 319 319 319 320 320 321 321 320 320 320 322 324 325 325 325 324 323 323 323 323 322 321 321 319 318 317 316 316
309 312 314 314 314 313 317 319 319 318 318 319 320 320 319 319 320 320 320 319 319 320 319 320 320 320 320 321 321 323 322 324 322 321 322 322 323 322 322 322 321 321 320 319
308 314 313 315 315 315 318 316 317 318 318 317 317 319 319 319 319 318 317 318 317 318 318 317 318 319 318 317 319 321 324 323 321 321 322 322 322 322 322 322 322 321 321 321
308 310 317 313 314 314 314 316 317 317 319 316 317 318 318 318 319 319 318 317 318 318 318 318 317 317 318 318 317 317 321 324 324 320 321 322 323 323 322 322 323 323 323 323
309 309 313 315 314 312 313 316 316 317 315 313 315 316 316 317 321 321 317 316 317 317 318 318 317 318 318 318 317 316 317 321 323 324 324 324 324 323 323 324 324 323 323 324
310 310 312 314 315 313 313 315 315 314 315 313 313 313 314 315 316 316 316 316 316 317 318 318 320 318 318 318 318 317 318 319 321 322 323 324 324 324 325 324 324 324 323 324
311 311 312 312 313 316 314 313 313 315 313 314 314 314 315 315 315 314 314 315 316 316 317 317 319 319 319 320 320 320 322 320 320 319 320 321 321 322 323 323 323 324 323 323
312 312 313 313 313 314 313 313 313 312 313 313 312 311 311 313 315 314 314 315 316 315 315 316 317 320 320 320 319 318 322 322 322 322 322 322 322 322 323 323 323 322 321 320
309 310 311 311 311 312 312 313 311 310 310 309 308 308 307 306 308 309 312 313 313 312 310 310 312 315 318 319 318 318 318 320 322 323 323 322 322 321 320 319 319 319 318 317
309 309 309 310 310 311 312 310 308 308 308 306 305 304 302 302 303 305 306 304 303 305 307 303 304 308 314 316 318 316 315 316 316 318 320 320 320 319 318 316 314 310 310 309
310 310 311 311 308 307 309 307 305 305 305 304 301 300 300 299 299 299 299 298 297 297 308 308 305 306 307 312 313 314 314 312 312 313 312 314 315 314 311 310 306 301 304 302

GFSCGP_850_thetae_069.txt.gz
Theta_e
311 316 318 319 319 320 320 321 322 323 322 321 321 321 322 322 323 324 326 327 330 330 329 328 325 325 323 325 326 326 325 325 325 324 324 324 322 322 320 316 313 312 319 320
311 315 316 318 319 320 320 320 321 322 321 320 320 320 320 322 323 323 325 327 328 331 329 328 326 324 323 323 324 326 326 326 325 324 323 323 322 321 318 315 314 320 320 318
314 314 316 318 319 320 321 321 322 321 321 321 320 321 321 322 322 322 323 324 326 329 329 329 327 325 323 323 324 324 325 326 325 324 323 322 321 320 318 316 317 319 321 320
317 315 317 318 319 321 321 320 320 320 321 322 322 321 323 323 324 323 323 324 324 328 330 329 327 325 324 323 324 324 324 324 324 323 322 322 321 321 319 316 316 320 316 317
317 318 315 317 319 320 321 320 320 320 321 322 321 321 322 323 322 323 322 323 325 326 329 329 328 326 325 323 324 325 324 325 324 324 323 321 321 322 321 318 316 321 320 317
312 313 316 316 316 318 319 320 320 320 321 323 322 323 323 324 323 322 322 322 325 326 328 329 328 327 324 326 322 324 324 324 324 324 323 324 323 321 320 319 318 318 319 317
314 315 316 316 315 317 317 319 322 323 324 324 323 323 323 323 322 322 323 323 325 326 328 329 328 327 324 325 325 324 324 323 324 324 324 322 322 321 319 322 322 319 316 316
318 318 316 316 317 317 319 320 324 326 327 325 324 324 325 324 323 323 323 323 323 325 329 329 328 327 325 324 325 325 324 323 322 323 324 323 322 321 319 319 322 320 316 315
316 315 315 317 317 316 319 320 320 322 325 328 325 325 324 324 322 322 322 323 325 325 328 329 329 328 327 325 324 325 324 324 323 321 323 324 323 322 322 321 321 320 318 318
314 316 316 317 317 317 319 320 321 321 326 328 327 327 326 323 322 322 324 325 325 326 327 329 329 329 328 326 324 325 325 324 324 323 321 322 323 323 322 321 320 319 317 315
312 314 317 317 319 319 317 320 321 322 323 325 327 328 325 324 323 323 324 323 324 327 327 328 329 329 329 327 325 325 325 325 325 324 324 322 323 322 322 322 321 320 319 316
312 314 317 319 319 318 319 320 322 324 324 325 327 328 322 324 324 323 323 323 323 323 327 328 329 329 330 329 327 325 325 324 324 325 325 324 323 323 323 322 322 321 321 320
312 315 315 317 320 318 320 320 321 322 323 327 328 325 324 322 322 322 323 322 323 323 323 325 328 329 330 330 329 327 326 325 324 324 325 325 324 324 324 323 323 323 322 322
310 316 317 319 320 319 319 320 320 321 324 323 325 324 323 322 321 321 321 321 322 323 323 324 325 328 329 329 330 329 327 326 325 324 324 324 324 323 323 323 324 323 323 322
311 318 319 317 319 319 319 319 320 320 321 321 321 321 320 320 320 320 320 320 321 321 321 322 322 325 327 328 329 329 329 327 326 325 324 324 323 323 324 323 323 322 322 322
309 315 316 319 317 318 319 318 318 319 319 320 320 320 320 320 320 320 320 320 321 321 322 321 322 322 322 325 328 328 329 328 327 326 325 325 324 324 323 323 323 322 322 321
308 312 315 322 317 317 318 319 319 319 319 321 321 321 320 320 320 321 321 321 320 320 320 320 320 320 322 323 323 327 328 328 328 327 327 326 325 324 324 323 323 322 322 322
309 311 313 317 318 318 320 318 318 319 319 319 320 319 319 319 318 320 319 319 320 319 320 321 321 320 320 321 320 321 325 328 328 328 327 327 326 325 324 324 324 323 323 322
309 310 314 313 317 317 315 317 319 321 320 317 319 318 317 316 318 321 320 318 319 319 319 320 321 321 322 323 323 320 319 323 326 328 328 327 326 326 325 325 324 323 323 323
309 310 313 316 317 316 315 317 316 316 320 315 316 316 316 315 317 318 316 317 317 317 318 319 321 322 321 321 320 321 321 319 320 324 327 328 327 326 326 326 325 325 324 323
312 311 312 314 315 313 315 316 316 317 318 315 315 316 316 317 316 315 316 316 317 318 318 319 320 319 317 319 320 323 323 322 321 321 323 326 326 327 327 326 326 326 325 325
311 312 312 312 313 314 315 314 316 316 315 315 314 313 313 313 314 315 315 316 317 317 317 317 318 316 315 318 319 319 320 320 321 321 321 324 325 326 326 327 327 326 326 325
313 311 313 312 312 315 315 315 313 314 314 312 312 311 311 311 311 311 312 315 315 315 313 313 314 312 315 317 317 316 316 318 320 320 320 321 324 325 325 325 325 324 323 323
311 312 313 314 314 314 314 313 311 312 311 310 309 308 308 307 308 308 310 309 308 308 306 306 308 306 312 315 315 314 313 315 317 317 316 317 319 320 321 321 319 322 320 318
311 311 310 311 312 313 313 311 309 309 309 308 307 306 305 304 305 304 305 303 302 302 300 300 299 300 307 309 310 312 312 311 312 313 311 308 309 311 311 311 310 311 310 311
309 311 311 313 311 311 311 308 305 306 305 305 304 303 302 301 301 300 300 297 295 295 295 296 297 295 300 304 305 307 308 309 308 309 310 308 303 301 301 302 302 302 302 302

GFSCGP_850_thetae_072.txt.gz
Theta_e
310 313 316 317 318 319 320 320 320 321 322 323 323 321 321 322 322 325 325 325 327 330 330 330 328 327 327 328 327 326 324 325 325 324 324 323 323 324 324 324 322 319 316 316
315 313 315 314 318 318 319 320 321 322 322 322 322 322 321 321 322 323 324 325 326 330 331 329 328 326 325 325 326 325 325 325 325 324 324 324 323 323 323 322 320 320 320 320
319 317 313 312 314 319 319 320 321 321 321 322 321 321 322 322 322 322 323 324 326 330 330 329 328 326 325 322 327 325 326 325 326 324 324 324 323 323 321 321 318 318 318 321
317 317 314 314 316 316 319 320 321 321 322 323 323 323 323 323 323 323 323 323 323 326 331 330 328 327 325 323 324 327 327 325 325 324 324 324 323 322 322 319 318 316 316 314
317 317 316 316 317 317 318 321 322 321 322 323 321 322 322 322 324 323 324 324 324 323 330 330 329 328 326 324 327 326 324 325 324 323 323 323 322 322 321 315 313 313 317 320
314 314 313 316 317 317 318 319 322 323 323 324 322 323 323 324 324 324 324 322 324 325 330 330 329 328 326 325 325 326 325 324 324 324 323 323 322 321 320 318 314 318 320 319
314 314 314 314 316 317 317 322 325 325 324 325 322 322 324 324 323 322 322 322 324 326 329 330 330 328 326 326 323 323 325 324 324 324 323 322 323 322 321 320 315 316 320 319
316 319 315 316 316 318 317 321 323 326 327 324 322 323 325 325 323 323 323 323 324 325 328 329 330 328 325 327 326 323 324 323 323 323 323 323 323 322 322 322 320 316 316 319
316 317 316 316 316 317 319 319 319 323 325 329 326 324 325 324 323 323 322 323 323 324 328 329 330 328 326 325 327 326 324 323 322 323 323 324 324 323 322 322 321 319 317 315
313 317 315 316 316 317 318 318 322 322 325 331 330 327 326 325 324 322 323 325 325 325 327 329 330 328 327 325 325 326 326 324 323 322 322 323 324 323 323 322 320 322 320 318
312 314 316 315 319 320 319 319 320 321 322 329 332 329 327 326 324 323 325 324 325 327 327 329 330 329 328 327 326 325 326 325 325 325 322 322 323 324 322 323 322 320 322 322
313 314 315 314 314 318 319 319 319 324 324 322 328 329 327 326 325 325 324 323 323 324 327 329 329 330 329 328 326 325 325 325 325 325 325 322 322 324 323 323 322 322 321 321
309 315 314 315 316 319 320 319 319 320 324 326 331 325 325 324 323 322 323 323 323 323 325 328 329 330 330 329 328 326 326 325 325 325 325 325 324 321 323 323 323 322 322 322
310 312 316 318 319 318 322 320 320 322 325 327 328 326 325 324 322 322 322 321 322 323 323 324 327 329 330 330 330 329 327 326 325 325 326 326 325 323 322 322 322 323 323 323
311 316 317 317 316 319 321 321 320 322 323 325 324 325 324 321 322 322 320 320 321 321 322 322 322 324 328 329 331 330 330 328 326 325 325 326 325 325 325 324 323 324 323 323
310 313 312 314 315 318 321 320 320 321 322 322 321 322 321 321 320 322 322 322 321 321 322 322 322 321 321 326 328 329 330 330 328 327 326 325 325 326 325 325 325 325 325 324
309 311 315 315 317 319 320 320 320 319 319 320 323 322 321 321 320 321 321 320 320 320 320 321 322 322 321 321 322 322 329 329 330 329 328 326 325 325 325 326 325 324 324 324
310 310 311 315 315 320 318 318 318 321 321 320 321 321 320 319 320 320 319 319 319 319 319 320 321 323 323 324 323 323 320 321 329 329 329 328 327 326 326 326 325 325 325 325
310 310 311 316 316 316 316 318 321 320 322 320 320 319 318 316 319 317 316 317 318 318 319 320 321 321 320 320 321 321 322 323 320 327 329 329 329 328 327 326 326 326 325 325
309 310 312 315 316 318 315 318 315 315 318 316 317 317 317 317 321 317 316 316 317 318 319 319 319 317 317 319 321 323 324 323 321 320 321 323 329 328 328 328 327 326 326 325
311 311 312 314 316 314 314 317 316 317 318 316 316 314 314 315 314 314 314 316 317 318 317 316 316 314 314 318 319 320 320 321 320 321 321 322 325 328 328 328 327 327 327 326
311 312 313 312 314 315 315 316 317 317 315 314 313 312 312 312 311 311 314 314 313 312 311 312 312 308 309 313 315 316 317 317 318 320 320 320 322 324 326 327 328 327 327 327
312 312 314 311 313 316 314 314 314 313 312 311 311 310 309 310 309 309 310 309 308 307 305 304 304 303 306 307 309 312 314 313 315 316 318 318 318 320 323 323 324 325 325 325
313 312 314 314 316 315 312 312 312 311 310 309 308 308 307 307 306 307 306 304 302 301 300 299 299 298 302 305 306 306 308 309 309 311 311 309 311 313 315 316 313 315 319 318
312 311 312 314 313 310 309 308 309 308 307 307 306 305 304 304 303 304 300 298 296 295 295 295 296 296 298 302 303 303 303 305 306 307 308 309 308 308 307 305 301 298 299 304
311 311 314 313 309 309 307 305 306 305 304 303 302 301 300 298 299 299 295 293 293 293 294 294 295 296 297 298 300 301 301 301 302 303 304 304 305 305 304 302 300 296 289 291

GFSCGP_850_thetae_075.txt.gz
Theta_e
313 307 308 309 314 316 317 319 318 318 318 319 319 318 317 318 319 319 322 323 324 329 330 330 329 328 327 326 326 327 324 324 324 324 324 325 326 327 328 328 325 325 321 320
314 310 310 312 315 316 317 317 317 318 319 320 320 322 317 317 316 319 321 322 323 329 330 330 329 328 327 325 324 324 324 325 324 323 323 326 326 326 326 325 326 324 320 320
315 317 316 316 312 315 314 314 318 318 319 319 319 319 318 319 319 321 320 324 324 329 330 329 328 328 327 324 325 326 324 325 324 324 322 323 323 324 324 324 325 323 321 320
316 316 316 318 315 313 314 315 317 319 320 323 321 322 318 318 319 320 319 322 324 329 330 329 328 328 326 323 323 325 326 325 324 324 323 323 322 322 323 324 324 322 320 318
314 316 316 318 316 313 315 318 319 321 322 323 323 321 319 318 319 319 319 321 324 329 330 329 329 328 326 323 322 327 324 326 324 324 323 323 323 323 322 323 321 318 317 318
313 313 314 315 316 315 316 317 319 320 321 325 323 321 319 319 320 321 320 321 322 329 330 329 329 328 327 324 323 323 326 326 324 324 323 323 323 323 322 322 320 320 320 319
312 313 313 313 315 315 316 319 324 326 326 326 322 322 320 319 320 320 319 320 322 329 330 329 329 328 327 325 322 326 326 325 324 323 322 323 323 322 322 322 322 318 319 319
312 314 315 314 314 317 317 320 325 328 326 323 321 322 321 320 320 320 321 323 324 329 330 330 329 328 328 326 324 324 326 323 323 322 322 322 322 322 322 321 321 319 318 318
314 316 314 314 315 316 318 321 318 323 321 326 328 321 320 320 321 320 320 322 324 329 329 330 329 329 328 326 325 321 324 325 324 323 322 322 322 322 322 321 321 317 314 314
313 315 314 315 316 317 318 318 320 319 325 328 326 327 320 321 320 319 319 320 323 327 329 330 329 329 328 327 325 325 321 321 322 323 322 322 322 322 323 323 322 321 318 314
312 314 315 316 318 319 319 320 320 320 323 326 330 331 325 325 323 320 320 323 326 326 329 329 329 329 328 327 326 325 325 323 321 320 322 322 322 322 322 322 322 322 322 318
312 316 315 314 315 316 315 320 320 324 325 323 322 326 325 324 322 320 321 323 324 327 329 330 329 328 328 327 326 325 325 324 324 323 323 321 322 322 322 323 322 322 322 322
309 315 317 314 314 314 317 319 320 319 320 324 326 326 324 322 321 320 320 322 323 326 328 329 330 329 328 327 327 326 326 325 324 325 325 325 323 321 323 323 323 322 322 321
309 311 313 316 317 315 318 320 320 320 324 323 325 326 326 324 321 320 320 320 321 322 322 328 329 330 329 328 328 328 327 327 325 323 325 325 325 324 320 323 324 323 322 322
310 311 313 314 313 315 316 317 319 321 321 325 325 325 324 323 321 320 321 320 321 321 322 322 322 322 327 329 329 329 329 329 328 326 324 325 325 325 325 323 322 323 323 323
309 311 311 312 313 314 316 318 318 322 320 321 323 324 321 321 320 320 319 319 320 320 321 322 323 323 323 325 326 328 328 329 329 328 327 325 325 325 326 325 325 323 322 322
310 309 309 313 313 313 318 319 320 321 321 322 324 322 320 322 320 319 319 319 319 320 319 321 322 322 322 322 322 323 323 327 328 328 328 328 327 325 325 326 325 325 325 324
309 310 309 312 313 321 316 317 319 320 321 321 321 321 320 318 316 316 317 318 319 320 320 320 319 317 318 319 320 320 322 322 323 328 327 326 326 326 326 325 325 325 325 325
308 309 310 311 314 314 317 318 318 321 318 315 318 320 318 318 316 314 316 317 318 319 319 319 318 316 316 317 319 321 322 322 322 322 323 326 326 327 326 326 326 326 325 326
307 308 309 312 314 318 316 316 314 316 319 314 315 315 315 315 315 314 314 312 312 314 315 315 316 315 315 317 317 318 319 319 319 320 320 320 322 325 326 328 327 326 326 326
308 309 311 311 312 313 317 315 314 318 317 316 313 312 311 312 311 312 310 308 310 309 307 310 312 311 311 313 314 315 316 316 315 316 318 319 320 320 323 325 327 327 327 326
309 311 310 310 311 312 316 315 318 316 313 311 310 310 310 309 309 308 307 306 307 306 305 305 306 306 307 308 310 311 313 312 313 314 314 314 316 319 319 321 323 326 324 325
311 310 311 310 310 314 314 314 311 310 309 308 307 307 307 306 306 305 303 302 302 302 302 301 301 301 303 305 306 308 307 309 309 309 310 310 309 311 314 316 318 321 321 319
312 310 312 312 313 312 310 309 308 308 307 306 305 304 304 303 303 301 299 299 299 299 298 299 300 300 301 302 303 303 303 303 305 307 307 308 308 308 308 309 311 311 312 311
307 311 312 307 304 306 305 306 305 305 305 303 302 302 301 301 299 298 295 295 296 296 297 297 296 296 297 299 300 301 302 302 302 302 303 303 302 302 302 302 300 300 300 300
304 303 308 308 304 303 302 302 302 301 301 300 299 297 297 297 294 295 293 292 292 292 292 294 293 292 291 293 295 296 298 299 299 299 299 299 297 295 295 295 294 292 290 291

GFSCGP_850_thetae_078.txt.gz
Theta_e
311 308 308 305 309 314 315 316 316 315 317 318 317 317 317 318 318 315 315 318 322 326 329 330 329 329 328 328 327 320 324 323 324 326 325 326 327 329 329 326 327 325 322 323
313 310 309 308 310 311 314 315 316 316 317 317 316 316 318 318 318 317 317 318 323 327 329 329 329 329 328 328 326 320 323 324 323 324 326 327 328 328 328 328 326 325 324 323
314 315 312 311 315 317 313 314 314 314 317 317 317 318 318 319 317 317 317 320 320 326 329 329 329 329 328 327 326 318 322 324 323 324 325 324 326 327 326 327 325 324 324 323
314 314 316 316 317 316 318 313 314 316 319 321 319 321 319 319 319 317 316 318 319 325 328 329 329 328 328 327 323 319 324 324 323 323 323 325 325 325 325 327 326 324 323 322
313 314 315 316 317 316 317 313 315 318 319 321 319 321 319 319 318 318 316 317 319 324 328 329 329 329 328 326 320 320 324 323 323 323 324 322 322 323 324 325 326 325 323 320
312 312 313 314 314 315 315 315 316 318 320 321 319 322 321 320 319 319 318 319 319 326 328 329 329 328 327 325 320 321 325 325 324 324 323 322 323 322 323 323 323 324 323 321
311 311 311 313 314 314 315 317 320 321 322 321 320 322 321 321 319 318 318 319 319 326 328 328 328 328 327 325 320 321 325 324 324 324 324 323 323 323 323 322 322 324 323 321
310 311 313 313 313 316 316 319 323 323 325 323 321 322 321 320 320 319 319 319 322 327 328 329 329 328 327 326 322 319 323 323 323 322 323 323 323 322 322 323 322 323 323 321
312 314 312 313 313 314 318 321 318 323 324 323 324 322 320 319 318 318 316 321 326 327 327 329 328 328 328 326 323 318 321 324 325 322 322 322 322 322 322 322 322 323 322 320
312 313 312 315 314 316 316 318 321 321 324 326 325 324 323 325 321 318 317 319 326 327 327 328 328 328 328 327 324 321 319 322 324 322 322 322 322 322 322 322 322 322 322 321
312 312 314 316 317 318 318 320 320 320 321 328 327 328 324 325 323 321 318 319 325 327 328 328 328 329 328 327 325 323 322 321 323 322 322 321 321 321 321 322 322 322 321 321
312 313 313 313 313 316 317 318 320 320 323 323 323 325 325 324 322 319 319 321 322 327 328 328 328 328 328 328 326 325 324 322 320 320 321 322 321 321 321 322 322 322 321 320
309 312 313 313 314 316 316 317 317 320 320 325 325 325 323 323 322 321 319 320 322 326 327 327 327 328 328 328 327 326 325 324 322 321 320 320 320 322 321 321 321 321 321 322
309 310 311 313 314 314 316 315 314 319 321 321 322 323 321 323 323 321 320 321 322 323 325 326 326 325 325 326 326 326 326 326 325 323 322 322 322 321 321 321 322 321 321 321
309 309 310 311 312 312 313 316 316 316 318 322 321 323 324 323 322 321 319 320 322 323 322 322 324 326 327 325 325 325 325 326 326 325 325 323 322 323 324 323 321 321 321 321
308 308 310 310 311 314 315 315 314 315 317 317 319 322 320 322 321 319 318 320 321 321 318 318 319 321 323 324 326 327 327 326 325 326 325 325 324 325 325 325 324 323 321 320
308 310 308 308 312 311 315 315 315 315 318 319 321 320 320 322 319 317 317 320 320 317 314 315 317 318 319 321 322 322 322 324 327 325 325 324 324 325 325 325 325 325 325 324
308 308 307 308 310 315 316 313 317 320 318 320 321 321 318 316 314 312 317 318 315 311 311 312 314 316 317 318 320 321 321 320 323 325 325 325 325 324 324 324 325 325 325 325
307 307 306 306 310 309 314 315 318 313 315 318 319 319 317 315 312 309 309 311 310 308 308 310 312 313 315 316 317 318 319 319 319 319 321 323 324 324 325 325 324 325 325 325
307 306 306 308 311 310 314 314 314 316 317 314 317 317 315 314 313 308 304 307 307 307 308 307 309 311 312 311 314 315 315 315 316 316 315 318 319 319 320 323 325 325 324 325
305 306 309 308 310 311 312 315 315 318 317 312 311 311 312 312 308 304 302 302 304 305 304 306 308 309 308 309 310 311 311 310 309 309 311 313 315 317 318 317 318 321 323 324
308 308 308 308 311 311 314 314 316 313 311 310 310 309 308 305 303 302 302 301 301 303 305 304 305 305 305 306 307 305 306 304 307 308 309 310 310 311 313 315 316 316 318 320
311 308 307 308 309 312 311 312 310 309 307 306 307 306 305 302 300 299 298 299 300 300 300 300 301 302 303 304 305 304 303 302 303 305 307 307 307 308 308 310 312 314 314 314
307 309 310 310 308 308 306 307 306 307 303 302 302 302 302 298 297 295 295 294 295 296 297 298 299 299 300 301 302 302 303 303 302 302 303 303 304 303 303 304 303 303 303 302
303 304 309 306 303 303 301 301 302 301 301 301 300 299 297 297 294 294 292 292 292 293 295 296 296 296 295 296 299 300 301 301 302 302 302 301 300 299 298 298 297 296 294 295
299 300 307 306 300 301 299 299 299 299 295 296 296 296 293 293 292 292 291 290 290 289 290 291 291 292 292 293 293 294 295 296 297 297 297 297 297 296 294 291 290 289 289 290

GFSCGP_850_thetae_081.txt.gz
Theta_e
310 307 306 305 308 310 312 313 314 313 313 314 315 315 315 315 315 314 316 316 318 317 318 321 327 329 329 328 328 327 324 321 324 324 324 327 327 328 328 328 326 328 327 327
313 310 309 307 307 307 309 311 311 313 314 315 314 315 315 315 315 316 316 317 317 316 319 324 328 329 329 329 328 327 323 323 323 324 324 326 326 328 329 329 327 327 327 325
313 314 313 310 309 311 312 314 312 313 314 314 314 316 315 315 316 318 319 320 316 316 320 326 328 329 329 328 328 327 323 323 323 323 324 325 327 326 327 327 328 327 325 322
313 313 315 314 316 315 316 315 315 313 316 316 317 319 318 317 317 317 318 318 316 317 323 326 328 329 329 328 328 326 320 323 324 323 324 325 325 327 326 327 328 327 323 323
313 313 314 315 315 315 315 315 315 316 316 317 317 320 317 316 317 318 317 318 318 317 322 326 328 328 328 328 327 326 319 324 323 323 323 324 325 325 327 326 327 327 323 324
311 311 312 312 313 313 314 315 314 314 317 319 317 318 317 316 317 319 319 317 318 317 322 326 328 328 328 328 327 323 320 324 324 323 322 324 323 324 325 324 324 326 324 323
311 311 311 312 313 313 314 316 315 315 317 317 317 317 317 316 318 319 319 318 317 318 323 325 327 327 328 328 327 321 320 323 322 323 323 323 322 323 324 324 325 326 325 325
310 310 310 312 312 313 314 316 317 320 320 321 316 318 317 318 319 319 319 319 319 318 322 324 326 327 328 328 327 321 320 322 322 323 323 323 322 322 322 323 324 324 325 324
311 312 311 311 312 313 316 318 316 321 320 324 320 321 318 323 319 321 320 321 318 320 323 325 326 327 328 328 327 320 319 321 322 323 323 323 323 322 322 322 322 321 322 324
311 312 311 315 313 313 314 316 322 318 321 324 322 322 327 325 323 321 318 317 318 324 325 325 326 327 328 328 326 321 318 320 321 321 322 323 323 323 322 322 322 322 322 323
311 312 312 315 316 315 317 316 317 319 320 325 327 327 324 323 322 321 319 319 321 325 325 325 326 327 328 327 326 323 319 319 320 321 322 322 323 322 322 322 322 322 322 322
311 313 312 311 312 314 315 316 318 322 324 322 321 320 323 321 319 320 319 321 322 325 325 325 326 327 327 327 326 324 320 319 319 320 322 321 322 322 322 322 322 322 322 322
309 311 310 308 312 316 317 316 315 317 318 320 320 319 321 320 319 320 319 322 323 326 325 325 325 325 326 326 325 324 323 322 321 321 320 321 321 321 321 321 322 322 322 322
308 309 309 309 309 312 312 314 314 313 319 321 319 320 321 320 319 320 320 322 321 322 323 323 324 325 325 325 325 325 324 324 323 322 321 321 321 321 321 321 321 321 321 321
306 308 309 309 309 310 311 312 312 313 314 316 315 319 321 320 319 319 319 319 317 316 317 319 321 323 324 325 325 325 325 325 325 324 323 323 322 321 321 321 321 321 320 321
307 308 308 309 308 309 311 309 312 313 314 315 315 316 318 320 319 319 318 317 314 312 312 313 316 320 322 323 324 324 325 325 325 325 325 325 325 324 323 323 323 322 321 321
308 307 308 306 306 307 310 312 314 315 315 313 315 316 320 321 321 319 318 313 310 309 308 308 311 313 316 318 319 322 323 325 325 324 323 323 323 324 324 324 324 324 323 323
307 307 306 305 306 304 310 312 313 315 316 315 317 317 319 315 311 312 312 309 305 304 303 306 308 310 313 315 317 318 320 323 323 323 322 323 323 323 323 323 323 324 324 324
305 306 305 304 306 305 307 313 313 313 315 313 317 316 313 309 307 305 304 304 302 302 303 305 306 308 310 313 314 315 316 317 318 320 320 321 321 322 322 322 322 323 323 323
305 304 305 305 307 306 310 312 311 311 316 312 316 315 313 313 310 304 300 300 299 300 303 305 306 306 307 306 308 310 310 312 313 313 315 317 318 318 318 319 319 321 321 321
305 306 308 306 306 307 310 314 312 316 315 310 311 312 308 306 303 299 300 297 297 300 302 303 305 306 306 306 307 309 308 308 307 307 309 310 311 313 314 314 315 316 317 319
306 306 306 305 307 307 311 313 311 311 309 308 308 306 303 300 298 297 296 296 298 299 299 300 301 302 302 302 303 303 304 303 305 306 307 308 308 309 309 310 311 311 313 315
309 307 307 307 307 309 308 311 308 306 305 305 305 303 301 298 296 295 295 295 294 295 295 296 297 299 300 301 302 303 302 302 302 302 304 304 304 304 304 305 306 307 307 307
302 301 309 309 304 303 303 301 300 301 298 299 300 299 298 295 294 292 292 292 293 294 295 295 297 297 297 298 299 300 300 300 301 302 301 301 302 302 302 303 302 302 301 300
299 300 306 306 303 301 298 297 297 296 295 295 295 294 293 294 291 293 291 290 289 290 292 293 294 294 294 294 295 296 296 295 296 297 296 297 298 298 299 299 298 297 294 295
296 298 301 304 299 299 296 295 295 295 292 292 292 292 290 290 289 290 288 287 288 289 289 290 290 291 291 291 292 292 293 293 294 295 295 294 293 292 292 291 290 289 290 291

GFSCGP_850_thetae_084.txt.gz
Theta_e
308 306 305 305 307 308 310 310 309 308 310 311 311 312 313 312 312 311 314 315 317 317 319 319 318 317 324 328 329 328 327 327 325 325 328 327 326 328 329 327 325 326 325 326
312 309 306 306 305 306 307 307 307 308 310 311 311 312 312 312 312 314 313 315 317 317 319 318 318 318 325 329 328 328 328 326 322 323 324 326 326 326 327 328 327 326 326 326
312 313 312 309 310 309 309 310 312 313 313 311 312 313 312 312 313 314 315 316 317 318 319 317 318 320 326 328 328 328 328 326 321 323 323 326 325 327 326 327 327 327 325 326
311 310 313 311 311 309 314 314 315 314 313 313 313 317 313 313 315 315 315 316 318 318 318 316 319 322 326 328 328 328 327 324 321 323 324 324 323 325 326 327 327 325 326 327
311 313 315 315 314 313 314 315 315 314 314 314 314 315 312 313 314 314 314 316 318 319 318 317 318 323 326 328 328 328 326 322 320 323 322 323 324 326 325 327 327 325 327 325
309 311 311 311 312 312 313 314 313 313 315 316 313 314 314 314 314 315 315 317 318 318 317 321 322 324 326 327 329 328 326 320 322 323 323 325 323 324 325 326 327 326 326 327
310 311 311 312 312 312 313 314 313 314 318 316 313 315 314 314 314 315 316 317 318 318 317 320 321 325 327 327 328 327 326 319 322 323 323 325 323 324 324 325 326 326 327 326
309 309 310 311 311 312 313 314 315 318 318 318 317 315 315 321 320 319 319 318 318 317 318 319 319 323 326 327 328 327 325 319 322 324 323 323 325 323 324 324 324 326 326 325
310 311 310 311 311 312 315 316 315 318 317 320 318 317 320 321 321 320 319 319 319 318 319 319 320 324 325 327 328 327 325 318 321 323 323 323 323 322 322 323 324 324 325 325
310 311 311 313 312 312 314 315 320 318 317 320 319 320 324 322 320 320 320 319 322 321 318 319 322 324 324 326 328 327 324 317 320 321 322 323 323 322 322 322 322 323 323 325
310 310 311 314 314 314 316 316 317 317 320 321 319 320 323 322 319 320 319 321 321 320 322 323 324 324 325 326 327 326 322 318 320 321 322 322 323 322 322 322 322 322 322 321
311 311 311 311 310 313 314 314 314 320 319 318 317 317 322 322 318 319 319 320 320 324 323 324 324 323 324 326 326 325 322 318 320 321 321 320 321 322 321 321 321 321 322 322
310 310 309 306 311 314 316 315 315 313 316 319 322 317 319 318 319 318 318 318 317 321 323 323 323 323 324 325 325 324 322 319 319 320 321 322 320 320 320 321 321 321 321 321
307 308 308 308 307 308 308 311 311 313 313 312 316 316 314 318 319 317 319 317 316 318 322 323 323 324 324 324 324 325 323 321 321 321 320 320 320 320 320 320 320 321 321 321
305 308 309 308 308 308 309 309 310 311 312 313 311 312 313 315 319 318 318 314 313 312 313 316 319 321 323 323 323 324 324 323 323 323 323 322 321 321 320 320 320 320 320 320
306 307 307 308 307 307 309 307 306 306 308 310 311 313 313 314 319 318 313 310 310 308 307 309 312 316 319 322 323 323 324 325 324 324 324 323 323 322 322 322 321 321 321 321
307 305 305 304 305 305 305 308 311 310 312 312 315 313 316 319 320 317 311 307 305 304 303 303 304 307 311 316 320 322 322 324 324 323 323 322 323 323 323 323 323 323 323 323
306 306 305 305 304 302 304 311 312 311 311 310 314 315 313 314 308 305 304 304 301 299 298 299 301 303 307 310 318 318 318 320 322 322 321 322 322 322 323 323 323 323 322 322
304 305 305 303 305 304 305 312 310 309 310 311 311 313 314 307 304 300 301 300 300 298 298 299 301 301 304 309 312 315 316 317 317 318 318 319 319 320 320 321 321 322 322 322
304 303 305 304 306 302 302 312 311 311 312 307 311 315 310 312 310 301 299 299 300 300 299 302 301 303 302 302 306 310 310 312 313 313 314 314 316 316 318 318 318 319 320 320
305 305 306 305 306 305 307 310 311 314 311 301 303 302 301 301 300 296 296 295 296 297 298 301 302 302 300 301 303 305 305 307 306 307 307 308 310 311 312 312 313 314 315 317
305 306 306 307 307 306 307 311 312 309 301 300 299 298 297 295 295 293 292 292 292 294 297 298 300 300 300 300 301 301 301 301 301 303 305 305 305 306 306 308 309 309 311 311
307 306 307 306 306 304 300 302 300 301 299 300 299 297 296 294 292 291 290 291 291 292 293 296 297 297 298 298 299 300 298 300 301 301 300 302 303 303 303 303 303 304 304 305
298 299 303 307 302 299 297 296 295 295 294 295 295 295 294 292 291 291 291 291 292 292 292 293 295 295 295 296 297 298 298 298 299 299 299 299 300 300 300 301 300 299 299 297
296 297 298 304 302 299 295 294 293 293 293 293 293 292 291 291 289 288 287 287 288 289 290 291 290 290 290 292 293 292 294 294 295 295 295 295 295 295 296 295 294 292 290 292
294 295 297 300 297 296 293 291 291 291 290 290 291 290 289 289 287 287 286 287 288 288 288 288 288 289 289 290 291 291 291 292 294 294 294 293 292 292 292 291 290 288 289 290

GFSCGP_850_thetae_087.txt.gz
Theta_e
307 309 309 308 309 307 309 311 311 310 309 309 310 311 312 312 312 313 314 314 315 315 316 317 317 319 319 318 319 328 329 330 329 327 325 327 326 326 327 327 328 326 326 327
310 310 309 308 308 308 308 308 309 310 310 312 314 315 314 313 313 312 313 314 315 315 316 317 317 318 318 318 318 327 329 329 328 327 326 328 326 325 327 326 327 326 325 326
312 312 311 308 308 308 308 309 311 312 313 314 314 314 314 313 313 313 313 313 314 315 316 316 317 318 318 318 319 326 329 329 327 327 323 327 325 326 326 325 327 327 324 325
312 311 313 311 312 311 312 311 312 315 315 314 314 315 314 314 315 315 315 315 314 315 315 317 318 318 318 319 323 328 329 328 327 325 321 323 324 324 325 326 326 326 327 326
312 313 313 313 313 311 315 314 314 314 315 315 315 316 315 314 316 317 317 316 316 316 317 317 318 318 318 321 325 328 328 328 327 321 322 322 324 323 323 324 326 326 327 325
309 311 313 313 313 314 313 313 313 314 315 317 314 315 315 316 316 319 320 318 316 317 317 318 317 318 320 323 326 328 328 328 326 319 324 325 322 324 325 326 326 326 326 324
311 312 311 312 313 313 313 314 316 317 316 315 314 315 316 316 321 321 321 320 320 319 316 317 319 320 323 323 326 328 328 327 325 320 323 324 323 323 325 325 326 326 325 325
310 311 312 312 312 313 314 314 316 315 318 318 318 318 316 322 320 320 320 321 322 323 321 318 321 323 324 323 325 328 328 327 322 322 323 325 323 324 324 324 325 326 325 322
310 312 310 311 311 313 315 316 315 317 317 318 316 318 317 321 321 320 321 321 321 322 322 321 319 321 323 323 325 328 327 327 320 324 324 324 323 323 323 322 324 325 325 325
310 314 312 312 312 312 314 316 318 316 317 319 318 318 319 323 321 320 320 321 321 321 323 320 318 320 323 323 325 327 327 326 320 324 324 324 323 323 323 323 322 324 325 325
310 312 313 314 314 315 315 315 315 317 319 320 320 318 323 321 319 320 320 319 320 320 323 322 323 324 323 322 326 326 326 324 320 326 322 322 321 323 322 322 322 323 324 324
311 311 312 312 310 313 314 315 314 316 318 318 318 319 320 315 317 318 319 318 318 319 322 323 324 324 322 323 324 327 325 322 320 323 321 321 321 320 321 321 321 322 322 322
311 311 309 314 314 314 314 314 311 311 311 315 318 318 318 312 314 316 318 316 316 316 320 321 322 320 320 321 325 326 324 320 319 321 322 320 320 321 321 321 320 321 321 321
308 309 308 307 308 310 310 310 309 312 312 311 311 311 311 311 312 316 315 314 313 311 312 319 320 320 321 320 325 324 322 319 319 320 321 321 320 320 320 320 320 320 320 321
308 309 309 308 308 309 309 309 309 309 309 309 308 309 310 312 312 316 312 310 308 307 306 309 311 318 320 321 322 322 321 320 320 320 321 320 320 320 320 320 320 320 320 320
308 309 308 308 307 307 307 307 307 306 307 308 309 311 312 313 314 314 310 307 305 303 303 303 305 310 316 318 320 322 321 322 322 321 322 322 322 321 321 321 321 320 320 320
307 308 308 307 305 306 305 307 307 308 310 312 311 312 310 314 311 310 306 304 301 299 298 299 301 303 307 314 318 321 322 322 322 322 321 321 322 322 322 322 321 322 321 321
306 306 307 306 305 303 305 305 310 312 311 310 310 311 311 311 304 302 302 301 300 299 297 297 298 300 303 307 315 316 319 321 321 321 320 320 321 321 320 320 321 321 322 321
305 306 306 307 306 304 306 312 310 311 310 306 306 306 306 305 301 299 298 298 299 302 296 297 297 298 301 306 310 315 313 316 315 318 318 317 318 319 320 320 320 321 321 321
305 306 307 306 305 304 303 309 309 311 312 303 301 301 311 306 308 298 295 295 296 298 301 297 298 300 300 301 305 308 311 312 315 314 313 314 316 317 317 317 318 318 319 319
305 304 305 305 305 305 305 307 310 312 309 299 297 297 295 296 297 293 293 292 293 295 296 299 300 298 298 300 304 307 302 303 305 305 306 308 310 310 311 311 312 313 313 313
306 306 306 305 307 306 301 307 309 306 299 298 296 295 293 292 291 291 291 291 291 292 293 295 300 298 298 301 302 302 301 300 302 303 303 303 305 305 306 306 307 308 308 308
307 304 303 308 307 300 297 297 295 296 296 296 295 293 291 290 290 289 289 290 290 290 291 293 295 296 297 299 299 300 298 298 300 301 302 303 304 303 302 303 304 303 303 304
296 296 301 301 299 296 295 294 293 293 292 292 292 291 290 289 288 287 287 288 288 290 292 292 294 295 295 295 295 295 294 296 297 298 298 298 299 299 299 300 299 298 298 297
295 296 297 301 299 296 292 291 291 290 290 290 289 288 288 288 287 286 286 286 287 288 289 290 290 290 290 292 292 292 293 293 294 295 294 294 294 295 294 294 292 292 291 292
293 294 297 297 295 293 290 289 289 288 287 287 287 286 285 285 285 286 285 286 287 287 286 287 287 287 287 288 289 289 290 291 292 292 291 291 291 291 290 290 289 289 289 290

GFSCGP_850_thetae_090.txt.gz
Theta_e
306 308 310 310 310 309 309 309 311 313 312 311 311 312 313 314 314 315 315 315 315 316 317 318 318 319 319 319 323 328 333 327 331 331 332 331 327 324 325 328 328 327 326 327
309 309 309 310 310 309 310 308 308 309 311 312 313 315 316 316 316 315 315 316 316 316 316 317 318 319 322 321 319 328 333 327 330 331 331 329 326 325 324 325 326 327 328 329
310 311 310 309 310 310 311 311 311 311 312 314 315 316 316 316 316 316 316 316 316 316 316 316 317 318 323 321 321 329 332 328 330 332 330 328 326 325 325 325 326 327 327 327
313 312 312 312 311 311 311 311 311 311 315 316 315 314 314 315 316 318 319 319 319 319 318 317 317 318 322 326 326 329 331 331 330 330 330 327 327 325 326 326 326 327 327 326
312 312 312 312 312 311 311 314 314 315 316 315 316 317 316 316 318 319 322 323 322 321 318 318 317 318 321 327 327 327 331 331 330 329 329 326 325 326 327 325 325 325 325 326
310 312 312 312 312 313 314 315 315 314 315 317 316 317 315 318 319 322 324 323 323 323 323 320 319 319 324 327 324 325 330 330 329 328 327 324 326 324 325 325 325 325 325 325
310 311 313 313 315 314 314 314 316 318 318 315 316 317 316 318 323 324 324 324 324 324 324 324 324 325 326 327 323 325 329 329 327 327 324 320 323 325 324 324 326 326 326 325
311 311 312 313 313 314 314 314 315 314 316 316 316 319 320 322 323 322 322 322 322 323 325 325 324 327 327 326 327 326 326 328 325 326 320 323 324 324 324 325 325 325 324 325
308 309 310 312 312 313 315 317 315 318 317 319 316 317 321 322 322 321 321 321 322 323 326 326 325 326 328 326 326 329 327 328 325 324 320 323 323 323 324 324 324 324 325 324
311 311 313 313 313 314 316 315 317 318 319 318 316 317 320 323 320 320 321 321 321 322 326 326 323 326 328 327 324 327 327 327 323 321 322 322 323 323 322 323 324 324 323 324
311 313 315 314 315 315 316 317 317 318 319 321 318 320 324 320 318 317 319 320 320 321 323 325 325 326 327 326 324 325 326 324 322 320 324 322 322 322 322 322 323 323 324 324
312 313 315 315 314 314 315 315 316 318 320 318 318 319 320 319 314 313 316 318 319 317 317 323 323 325 325 323 321 323 325 324 321 321 323 323 323 322 322 322 325 323 324 324
313 313 314 315 313 314 314 316 315 314 314 317 318 318 320 315 312 313 315 317 316 312 312 320 321 321 321 321 321 322 323 324 321 325 324 322 322 322 322 321 322 322 323 323
309 312 311 312 313 314 314 313 312 314 315 314 315 313 311 312 314 316 316 316 314 309 308 309 317 319 321 321 321 322 323 325 324 325 322 321 321 321 321 321 321 321 322 322
311 312 311 309 309 309 309 309 310 311 310 310 310 310 311 313 315 315 316 313 310 306 304 303 310 314 316 320 321 322 322 324 322 322 322 321 320 320 320 321 321 320 321 321
308 310 309 307 308 308 307 307 308 308 308 310 310 312 311 312 312 313 309 308 306 303 301 300 305 307 311 314 319 321 321 322 323 323 323 322 321 322 321 320 320 320 320 320
308 309 307 307 306 306 306 307 308 308 309 311 312 312 312 312 311 308 306 303 302 299 297 300 298 301 304 309 313 319 320 320 321 321 321 321 320 321 321 321 321 320 320 320
308 307 308 307 307 306 311 309 310 309 311 308 308 309 308 308 303 299 298 300 298 297 299 299 296 296 301 304 309 313 317 319 320 320 321 321 321 321 320 321 321 321 321 321
308 308 308 308 306 305 310 310 309 310 310 304 304 303 302 303 299 296 295 294 294 294 296 297 295 294 296 301 303 306 311 314 316 317 318 318 319 319 319 320 320 320 320 321
307 307 308 307 307 305 309 308 309 311 314 301 301 299 297 304 306 295 292 292 292 293 293 299 297 295 295 296 299 303 304 308 308 310 312 312 314 315 315 316 317 317 317 318
307 306 307 306 307 308 305 306 307 314 308 299 298 295 292 293 293 291 291 290 290 291 292 293 300 297 296 295 297 299 299 301 301 305 303 305 309 311 308 310 311 311 311 311
308 309 309 307 308 309 299 306 308 301 298 296 295 293 292 291 290 289 289 289 290 290 291 292 295 296 297 297 296 295 296 298 301 303 300 304 305 304 302 304 305 305 305 306
308 303 305 304 303 298 296 296 294 295 295 294 293 291 290 289 288 288 287 287 287 288 288 290 291 292 294 296 299 298 298 299 299 302 301 301 300 299 299 299 300 301 301 300
300 298 304 304 298 296 295 294 293 291 291 291 290 290 289 287 287 286 286 285 285 286 286 286 288 289 290 291 293 293 294 295 297 298 297 296 297 295 294 294 295 296 294 293
297 297 299 300 298 297 292 290 290 289 289 288 287 287 287 286 285 285 285 285 286 287 288 289 289 289 290 291 292 293 293 294 295 296 295 295 293 293 292 292 291 292 292 291
295 295 299 300 295 294 291 288 288 287 286 286 286 285 285 285 284 284 283 283 284 286 288 289 289 289 289 291 291 292 292 293 293 293 293 292 290 290 288 289 289 290 289 290

GFSCGP_850_thetae_093.txt.gz
Theta_e
310 308 310 310 312 311 311 311 311 311 313 314 314 314 313 314 314 314 315 315 316 316 317 318 319 320 320 320 322 328 333 338 335 340 335 331 332 331 332 332 330 326 327 330
312 310 310 311 312 311 311 311 312 311 311 311 311 313 314 315 316 316 316 316 316 317 317 317 317 319 320 321 322 328 332 337 335 334 338 335 333 334 331 330 326 324 328 328
312 312 311 310 311 311 312 312 311 311 311 313 314 314 316 317 317 316 316 316 317 318 318 318 318 318 320 321 324 327 330 335 335 333 335 335 334 333 333 327 327 326 328 328
310 312 311 313 311 311 312 311 310 311 312 312 317 316 317 317 317 317 318 321 323 323 322 321 319 318 319 320 325 328 330 335 334 334 335 336 332 331 329 328 326 325 325 327
307 307 311 313 312 311 312 312 312 312 313 314 316 317 316 317 316 319 321 323 324 324 324 323 321 319 318 319 324 329 331 334 334 335 335 334 333 333 330 327 327 326 326 326
310 307 312 313 314 313 312 313 315 315 316 318 316 315 317 317 320 322 324 324 325 325 325 325 322 321 319 320 327 331 332 333 334 334 334 334 333 331 328 330 327 327 328 326
310 308 312 313 313 313 313 316 317 317 316 315 316 316 316 320 323 323 324 324 324 325 326 326 325 322 321 322 329 332 332 333 334 333 333 333 332 329 328 329 327 327 325 326
310 308 312 313 313 313 314 315 315 315 316 317 317 317 316 322 323 322 323 323 323 324 327 328 327 327 326 327 331 329 331 332 333 333 332 331 330 328 329 328 325 325 326 325
310 310 311 313 312 313 314 316 314 317 318 320 320 318 323 321 322 321 321 322 322 323 324 329 327 327 329 331 328 325 331 332 332 332 331 329 328 328 327 326 325 326 325 325
314 313 312 312 312 312 314 314 316 317 317 316 315 315 324 323 321 319 319 321 321 321 321 323 328 326 330 329 325 326 330 331 330 330 329 327 327 326 325 324 324 325 324 324
309 315 314 313 313 312 313 317 316 316 316 318 318 321 323 319 317 316 317 319 320 319 317 317 324 328 330 329 325 324 329 330 329 328 326 326 326 325 324 324 323 324 324 322
307 315 316 313 313 312 313 315 316 317 318 317 321 322 320 319 315 316 318 318 319 317 313 313 321 325 328 326 324 325 328 328 326 326 325 326 326 324 323 323 323 324 323 322
307 315 318 316 316 316 315 315 315 316 317 319 318 318 318 314 314 316 317 318 318 314 311 312 314 321 324 323 324 324 325 326 325 324 323 324 326 324 324 323 323 324 323 323
304 308 317 316 316 316 316 316 316 316 317 315 316 315 314 313 315 315 318 316 316 311 306 307 308 312 320 322 322 322 324 324 324 322 323 324 325 324 322 322 323 324 323 323
306 315 313 314 314 314 314 314 314 314 314 312 312 311 312 314 315 315 314 313 311 308 303 303 303 306 311 319 320 321 322 323 322 322 322 322 324 323 323 322 322 322 323 323
308 313 311 310 309 309 309 309 310 310 310 310 311 312 314 312 312 311 310 308 306 303 301 299 301 303 305 312 318 320 323 324 324 322 323 322 323 321 322 322 322 322 322 322
309 309 310 309 307 307 307 308 308 309 311 313 314 312 311 311 308 302 301 302 300 300 298 295 297 298 300 304 311 314 319 323 324 324 321 321 322 321 320 320 320 321 321 321
310 308 310 308 307 311 310 310 310 312 311 310 309 309 307 305 298 296 294 295 294 293 293 293 295 296 298 299 306 309 314 321 321 322 323 322 322 322 322 322 323 323 321 321
308 309 308 309 309 308 311 309 309 310 310 305 305 304 302 301 298 294 292 291 291 291 291 291 293 294 298 296 300 302 307 316 318 319 320 320 320 320 321 322 321 321 321 322
307 308 310 309 307 309 310 308 308 310 309 302 301 299 297 302 304 294 290 290 291 291 291 291 291 294 295 294 296 300 298 303 307 308 311 315 316 318 318 318 319 319 319 320
308 308 310 308 309 311 304 306 306 314 305 299 297 295 294 293 292 290 290 290 289 290 291 291 290 292 294 294 294 295 296 295 295 297 298 304 306 310 309 308 309 308 308 309
309 310 311 310 310 312 299 305 305 299 298 297 295 294 292 291 290 289 289 289 289 289 290 291 290 289 291 292 296 295 294 292 293 297 295 298 297 300 301 300 301 301 299 302
309 304 306 304 303 299 297 297 295 296 296 295 294 292 290 289 288 288 288 287 287 287 287 289 290 290 290 291 290 293 291 293 294 295 296 297 297 301 299 297 297 301 292 296
303 301 305 303 299 297 295 294 293 292 291 291 290 290 289 288 287 286 286 285 286 286 287 287 288 290 289 289 291 289 291 290 297 293 294 296 297 298 298 299 297 299 298 297
298 300 302 300 299 296 292 291 291 290 289 288 288 288 287 287 286 285 285 284 284 284 285 285 285 286 286 287 288 288 288 288 290 289 290 288 291 292 294 294 295 294 292 293
296 296 300 300 296 295 291 289 288 288 287 287 287 286 286 285 285 285 284 284 284 283 283 284 285 287 286 288 288 288 289 288 288 289 288 287 287 288 289 289 289 288 289 290

GFSCGP_850_thetae_096.txt.gz
Theta_e
312 310 309 309 310 310 311 312 313 313 313 313 314 313 314 316 316 314 315 316 316 317 316 317 319 320 320 320 319 321 327 334 330 335 337 339 342 340 337 332 330 330 329 328
310 313 312 310 309 311 311 312 313 313 313 312 311 312 312 313 313 313 314 314 314 315 316 316 316 318 319 320 320 321 328 333 332 334 337 336 340 339 338 333 330 330 335 330
308 310 312 312 311 310 312 313 312 312 312 311 312 311 313 314 315 315 315 315 316 317 317 318 318 318 318 319 320 321 327 334 334 334 337 334 337 336 335 337 331 333 335 333
310 309 308 309 312 311 311 312 312 312 312 311 311 313 313 316 317 316 316 316 317 322 323 323 322 321 318 320 320 322 323 328 334 336 337 333 335 334 333 332 334 331 328 327
308 309 309 308 310 312 312 312 312 313 312 312 312 313 314 316 316 317 321 323 323 324 325 325 324 323 322 319 320 322 323 327 334 334 335 334 335 334 333 332 331 331 329 327
308 307 309 310 308 311 313 312 312 313 313 314 313 314 315 316 317 321 324 324 325 325 325 326 325 324 322 320 320 323 325 328 333 335 334 337 336 335 332 332 330 328 327 325
309 309 310 310 307 312 314 314 316 318 317 317 314 314 316 316 323 324 324 324 324 325 326 328 327 326 323 321 319 326 326 330 335 335 333 338 336 333 334 331 329 328 328 326
310 310 309 311 312 314 315 315 317 318 318 317 315 315 318 318 322 322 323 323 323 323 323 324 329 328 326 322 327 328 330 331 336 335 336 335 334 333 332 330 328 328 327 327
309 310 311 311 311 313 315 316 317 318 316 319 323 316 321 321 322 321 321 321 322 321 321 321 324 327 328 332 332 332 332 332 334 334 333 332 332 331 330 327 327 328 325 326
306 309 311 311 311 312 315 315 316 317 323 323 324 320 324 323 321 318 318 321 321 319 318 319 319 324 330 331 331 330 329 332 333 332 332 331 330 329 327 327 327 325 326 325
305 308 310 313 312 314 313 316 315 316 317 320 320 323 321 318 316 317 319 319 319 317 314 313 317 324 329 330 329 326 331 332 332 331 330 329 327 326 326 326 324 324 325 324
306 311 311 315 313 313 312 314 317 317 317 317 322 324 317 317 315 318 319 318 316 314 311 309 316 319 324 325 326 325 329 330 330 329 328 326 325 325 324 325 323 324 323 323
306 308 313 314 315 314 312 312 314 317 317 320 321 323 315 315 317 317 316 315 314 311 307 305 312 314 317 322 324 323 326 328 328 327 326 324 324 324 323 323 323 323 323 321
304 305 307 311 315 314 313 313 316 317 318 317 317 317 315 315 315 314 312 312 311 309 305 301 303 308 311 316 320 322 324 326 326 326 325 323 323 323 322 322 323 323 322 323
306 309 310 310 311 317 317 316 316 316 315 314 312 314 313 313 312 310 308 307 306 304 301 299 297 300 306 310 316 320 323 324 324 323 323 324 324 324 323 324 324 324 323 323
307 313 311 313 314 314 315 313 314 312 312 311 312 313 310 308 304 302 301 300 299 297 296 295 294 296 300 304 307 312 319 322 323 323 322 323 323 325 324 323 323 323 324 323
309 310 312 309 308 309 310 309 310 313 310 311 311 309 306 305 299 296 295 295 294 293 292 292 291 293 295 300 303 306 309 316 321 322 322 322 324 323 324 323 322 322 323 323
309 310 310 309 309 314 311 311 312 309 306 305 306 304 303 299 294 293 292 292 291 290 290 289 290 291 293 296 301 302 303 308 314 322 322 322 321 320 320 321 322 321 321 322
309 311 311 311 314 312 311 309 310 312 306 302 302 300 299 298 297 292 290 290 289 289 290 290 290 290 292 294 297 301 299 300 305 312 318 319 320 321 320 320 320 321 320 321
307 309 311 311 309 312 306 304 306 308 305 300 298 297 297 297 300 294 290 290 289 289 289 291 291 291 292 292 294 298 298 297 295 298 305 307 311 315 318 319 319 319 319 319
311 310 312 310 313 308 300 303 306 311 303 298 296 294 293 293 292 290 289 289 289 288 289 291 291 291 290 291 293 294 295 295 293 293 298 301 301 302 305 308 311 314 314 315
306 309 308 310 311 308 297 301 302 299 297 297 294 293 292 290 290 289 288 288 287 287 288 289 290 290 291 290 289 291 292 292 293 297 297 296 296 294 294 295 296 298 301 302
305 304 305 302 302 298 296 296 294 295 294 293 293 291 290 289 288 287 287 286 286 286 286 287 288 288 289 290 290 289 288 290 292 295 296 297 298 296 294 296 293 292 294 296
304 302 304 303 298 295 295 294 292 291 290 290 290 289 288 288 287 286 286 286 285 285 285 286 287 287 287 288 289 288 288 290 290 292 293 294 295 295 296 296 295 292 292 296
299 300 302 300 297 295 292 291 290 290 289 289 288 288 287 287 286 286 285 285 284 284 284 284 284 284 285 287 288 289 288 290 290 289 289 290 290 292 291 292 291 291 290 291
296 295 299 298 296 293 291 289 289 288 288 288 287 286 286 286 285 284 284 283 283 283 283 283 282 284 284 285 285 286 286 288 288 287 288 287 286 287 287 288 288 288 289 289

GFSCGP_850_thetae_099.txt.gz
Theta_e
304 307 310 304 304 305 307 308 308 308 310 311 311 308 310 311 312 311 313 314 314 314 318 317 316 318 319 319 319 320 319 324 339 340 338 338 337 335 338 334 335 330 335 332
303 303 306 309 308 307 307 306 306 308 310 311 309 308 307 308 308 310 311 312 312 312 313 315 315 315 316 319 320 321 320 323 335 335 333 335 337 334 337 336 336 332 332 335
306 306 308 308 309 310 310 308 307 308 310 309 309 309 308 310 310 311 312 312 312 312 313 314 314 315 316 316 320 320 321 323 335 336 336 337 337 335 335 334 333 335 333 335
306 307 308 307 308 307 306 309 309 308 310 310 310 310 309 309 311 311 312 314 313 314 315 317 323 323 322 319 318 320 321 327 332 333 332 331 330 333 333 334 333 333 334 333
302 303 305 306 307 308 308 308 311 309 310 310 310 308 309 311 312 313 315 313 313 314 324 327 326 325 324 323 321 320 320 329 332 333 330 328 330 333 330 332 332 332 332 330
301 305 306 307 308 307 307 309 312 312 311 311 311 310 310 312 313 314 321 324 325 324 326 328 328 327 326 325 322 321 323 326 329 330 326 325 330 333 333 332 331 331 330 330
305 306 306 307 307 308 309 309 313 314 315 314 312 312 312 313 314 319 323 322 321 321 321 323 327 328 328 326 325 321 323 326 329 326 327 328 333 332 333 333 332 331 329 328
307 307 306 307 307 310 309 310 314 315 316 315 313 314 313 313 315 320 321 320 319 318 319 320 323 326 329 330 325 321 323 324 326 324 329 334 334 334 333 333 333 331 329 326
306 304 304 304 308 311 312 313 310 315 317 319 319 319 320 319 321 318 319 317 316 314 313 317 322 326 331 332 331 328 329 329 328 331 332 334 335 333 333 331 331 329 327 326
306 305 304 306 308 312 313 313 315 316 319 320 323 323 320 317 316 318 318 314 312 310 311 313 316 321 325 328 329 331 331 332 331 331 333 332 333 333 331 330 329 328 326 327
303 305 305 308 311 313 313 313 314 316 317 322 323 323 311 314 319 318 314 311 308 306 306 305 311 314 318 324 324 325 328 329 331 331 332 332 332 331 330 328 327 326 326 324
305 306 307 307 308 311 313 313 315 314 317 317 319 318 312 314 316 313 312 310 306 304 303 302 305 309 315 320 324 323 326 330 332 332 331 330 330 328 326 326 325 325 324 324
304 306 304 306 312 312 314 313 314 316 315 318 320 317 313 314 310 308 307 306 303 301 300 300 302 303 307 311 318 321 324 327 329 330 330 329 327 326 324 324 324 323 323 322
304 306 304 305 308 309 311 312 315 316 316 319 318 314 311 308 305 303 301 300 299 298 297 296 297 300 302 306 311 318 321 325 325 327 327 327 325 323 323 323 322 322 322 321
304 307 307 306 306 308 309 311 315 317 315 317 312 308 308 303 301 299 298 297 296 295 294 293 293 295 299 302 307 311 317 322 324 324 325 324 323 323 322 322 322 322 321 322
306 308 310 312 312 312 315 314 312 310 310 310 309 306 304 299 296 295 294 294 293 293 292 291 290 293 295 297 300 306 311 318 322 323 323 324 324 324 323 322 323 323 323 323
308 309 311 313 312 312 315 311 307 305 304 306 305 302 301 297 294 293 292 291 291 291 289 289 289 290 292 294 296 300 305 310 316 321 323 323 324 323 324 324 324 323 323 323
308 310 310 310 310 313 308 306 305 303 300 300 300 298 298 294 292 291 290 290 289 288 288 289 290 290 291 293 295 297 301 306 309 310 316 320 322 324 324 324 324 324 322 323
308 309 311 312 313 310 306 303 302 307 301 298 297 296 298 295 296 291 290 288 288 287 288 289 289 290 291 292 293 296 298 301 303 302 305 310 317 322 322 321 322 321 321 321
309 309 310 310 311 310 303 299 300 302 300 297 295 294 292 295 293 290 289 288 287 287 288 288 289 290 291 291 292 293 295 297 298 298 297 299 303 310 318 318 317 317 316 317
306 306 307 308 308 304 297 298 300 298 300 295 293 292 291 290 290 288 287 287 287 287 287 288 289 289 289 290 292 292 292 293 293 295 295 297 296 295 300 307 306 305 305 304
303 306 304 305 304 303 295 297 298 298 295 293 292 290 289 288 287 287 286 286 286 286 287 288 288 288 289 290 290 290 290 291 293 294 295 297 296 294 294 298 299 299 299 299
303 305 301 301 299 295 293 293 292 292 292 291 291 289 288 287 286 286 285 285 285 286 286 286 287 287 288 289 289 289 288 290 293 294 294 294 295 294 295 296 296 298 297 296
299 299 299 299 295 293 293 292 290 290 290 289 289 288 287 286 286 285 285 285 284 284 285 286 287 287 287 288 288 287 288 290 291 291 291 292 294 293 293 293 294 294 294 294
296 297 299 297 294 292 290 290 290 289 288 288 287 287 287 286 285 285 284 284 283 283 284 285 285 286 286 286 287 287 288 288 288 289 288 289 290 291 292 291 291 290 289 291
295 294 297 294 293 291 290 289 289 288 288 287 287 286 286 285 284 284 283 283 283 283 284 285 285 285 285 285 285 285 286 287 288 287 287 286 286 286 286 287 287 287 287 288

GFSCGP_850_thetae_102.txt.gz
Theta_e
304 300 302 306 303 305 304 303 303 304 305 306 306 306 308 310 308 307 310 310 312 312 313 314 315 317 318 318 318 319 319 319 319 320 323 337 336 337 336 334 333 337 336 333
302 301 302 305 307 305 305 304 304 305 306 306 305 306 308 306 307 308 308 310 310 311 311 313 313 313 314 315 316 318 319 319 319 319 320 332 332 336 336 336 335 337 338 337
305 306 306 306 305 305 306 307 307 307 307 307 306 307 308 308 307 310 310 310 310 311 311 312 313 313 313 313 314 315 318 319 319 320 323 333 333 333 336 336 334 336 337 335
304 305 305 304 304 305 305 306 306 307 306 308 307 308 308 309 309 310 310 310 310 311 312 311 312 312 319 321 319 316 316 319 320 321 323 330 332 332 329 335 334 334 333 332
301 300 300 301 302 302 303 307 307 306 306 311 309 309 310 308 309 309 309 317 320 316 316 323 325 325 325 324 324 321 318 320 320 321 323 333 333 330 331 334 333 333 332 332
300 301 300 301 305 306 307 307 307 309 311 311 310 311 310 310 310 310 321 320 318 317 318 323 325 326 326 325 325 325 323 322 323 322 327 333 332 332 331 333 333 333 331 331
303 304 303 305 305 306 307 307 309 309 312 311 310 310 310 313 313 312 318 316 314 312 315 318 325 328 329 327 326 326 324 327 328 329 330 334 332 330 328 330 330 328 330 330
305 304 304 304 303 303 303 309 309 311 312 313 311 312 313 317 318 318 316 314 310 308 311 314 316 321 326 328 327 325 329 325 329 329 331 333 330 329 331 332 331 329 331 331
305 304 303 303 303 308 310 311 309 310 310 313 317 315 317 317 316 314 312 309 306 304 305 312 314 318 323 323 326 328 332 339 333 329 330 329 330 332 333 332 330 331 332 331
304 303 303 303 304 306 310 311 310 311 312 314 318 320 321 314 316 313 308 305 303 301 302 307 309 313 317 320 323 326 329 331 331 327 328 327 330 331 332 334 333 331 330 329
303 303 303 303 308 310 312 313 312 312 314 314 319 318 308 309 309 308 306 302 300 298 297 298 305 309 313 317 321 324 327 329 331 330 328 328 330 331 334 336 331 329 328 328
304 303 304 304 304 305 310 312 312 311 312 316 316 316 307 305 303 302 301 300 298 297 295 296 300 305 309 313 318 321 325 327 328 329 328 328 329 332 332 330 329 327 326 325
304 302 303 303 310 310 312 312 313 314 313 317 319 315 306 302 300 299 298 297 296 294 293 293 296 299 303 305 312 317 322 325 328 329 330 330 331 330 329 328 326 324 324 323
304 303 304 305 306 306 308 309 311 314 315 313 310 309 304 300 298 297 296 295 294 293 291 291 292 295 299 302 306 312 317 319 322 326 327 329 329 328 327 325 323 322 322 321
304 307 306 305 305 305 306 311 312 313 312 312 307 305 301 297 296 294 293 293 293 291 290 290 290 292 295 298 302 307 312 316 317 324 325 325 325 324 323 322 322 321 321 321
303 307 307 307 308 306 309 310 306 306 307 307 304 303 298 294 293 292 291 291 291 290 289 289 290 291 292 295 298 301 305 310 311 319 324 324 324 324 323 322 321 322 321 322
303 306 310 313 311 312 309 305 303 302 301 301 302 301 296 293 292 290 289 289 288 288 287 287 288 289 290 293 295 297 300 303 308 311 319 322 324 324 323 322 322 323 323 322
304 307 311 312 311 307 305 302 301 300 298 298 298 299 293 291 290 289 288 287 286 286 287 288 288 289 290 292 294 296 299 301 303 307 309 314 316 321 323 324 324 322 322 322
306 308 310 313 310 307 304 300 299 303 297 296 295 295 294 292 292 288 287 286 286 286 287 288 288 289 290 291 292 294 296 298 300 302 303 303 304 308 315 315 320 322 321 321
306 308 309 311 309 307 301 296 297 299 296 295 293 291 291 294 290 288 286 286 286 287 287 288 289 289 290 290 291 293 293 294 294 295 297 299 300 299 301 304 306 311 317 319
304 305 304 307 306 303 295 295 299 299 296 293 291 289 288 288 287 286 286 286 286 286 287 288 289 289 289 289 290 291 291 291 292 293 294 296 297 299 294 294 298 302 301 309
303 304 302 302 302 302 293 295 297 295 293 291 289 287 286 286 285 285 285 285 286 286 287 288 288 288 289 290 290 290 289 290 292 293 294 293 294 295 295 296 295 295 296 298
301 301 299 299 297 293 291 291 291 291 291 290 288 287 286 285 285 285 284 285 285 286 286 287 288 288 288 289 289 288 288 290 291 292 293 293 294 293 293 293 295 296 294 293
296 298 297 296 294 293 292 290 289 289 289 288 287 287 286 285 285 284 285 285 285 285 286 286 287 288 288 288 288 287 288 290 291 291 291 291 292 292 292 293 291 292 292 290
295 295 296 294 292 291 290 289 288 288 287 287 286 286 286 285 284 284 284 284 284 284 285 285 285 285 285 286 287 287 287 288 289 289 288 288 289 290 291 290 289 288 287 288
295 294 294 294 292 290 289 288 288 287 287 286 286 285 285 284 284 283 283 283 283 284 284 285 284 284 284 284 285 285 285 286 287 287 287 287 287 287 288 288 288 288 287 287

GFSCGP_850_thetae_108.txt.gz
Theta_e
303 300 302 303 303 304 303 304 305 305 305 304 304 303 305 305 305 304 305 306 306 307 309 308 309 310 310 310 311 312 313 314 314 315 316 323 334 334 330 328 334 328 326 324
301 301 301 301 301 303 303 303 303 303 303 303 303 303 303 304 304 305 306 306 306 307 307 307 309 311 311 311 311 311 311 312 313 314 315 317 318 334 326 324 333 333 331 328
303 305 303 302 302 303 303 303 303 303 302 301 301 302 302 303 305 306 307 307 307 309 310 313 314 313 312 311 311 310 311 311 312 314 315 322 327 334 334 330 328 334 334 332
300 301 301 300 299 300 298 300 301 300 300 300 303 302 302 303 304 305 306 307 314 313 313 313 314 315 315 315 314 312 311 311 312 312 315 323 328 327 327 324 321 328 335 334
301 300 300 300 300 299 299 300 299 300 303 303 302 301 301 303 303 307 312 311 308 306 307 309 311 312 314 318 320 318 314 313 313 313 314 317 325 322 320 319 325 324 334 334
300 301 300 299 300 301 302 303 303 302 302 303 301 300 302 304 312 311 310 308 306 303 303 305 307 313 314 316 319 322 319 316 316 316 314 316 321 320 322 325 325 326 332 333
301 301 302 302 302 301 301 301 302 301 306 303 301 302 305 309 307 305 304 303 301 299 299 300 302 308 310 312 315 321 326 324 318 315 318 323 324 326 321 325 327 327 332 330
302 301 302 300 301 301 300 301 303 304 305 305 303 305 313 307 304 303 301 299 298 296 295 296 300 299 303 307 313 318 324 330 333 328 327 333 330 329 331 329 329 329 331 331
300 302 300 300 300 300 302 302 301 302 302 304 305 306 309 304 303 302 300 299 296 294 293 293 296 297 301 304 308 316 320 326 331 337 334 333 334 335 333 332 332 332 331 332
302 301 300 300 301 300 302 304 304 306 305 308 307 309 306 302 302 300 299 297 294 292 292 291 294 296 299 299 310 312 318 323 327 331 333 333 333 335 331 332 332 332 331 327
301 301 300 301 301 299 304 305 304 304 307 308 306 306 304 301 299 298 297 295 293 292 290 290 292 292 296 300 307 313 316 321 324 328 329 333 332 335 332 333 330 329 328 329
300 299 302 301 301 301 301 303 304 304 312 311 309 306 301 298 297 295 294 293 292 290 289 289 290 290 294 296 300 305 311 315 320 323 328 331 333 335 332 330 329 329 328 329
301 301 299 301 305 307 306 307 309 308 307 313 306 303 298 296 294 293 292 291 290 289 288 288 289 289 291 296 300 304 308 311 316 321 326 328 330 331 330 329 327 326 326 328
301 300 299 300 300 301 303 305 306 307 308 308 304 303 297 295 292 291 290 290 289 289 288 287 288 288 289 292 296 300 303 306 313 316 323 324 325 326 327 327 326 327 328 326
300 302 301 302 302 303 305 304 302 310 310 308 303 299 295 293 291 290 289 288 288 288 287 286 286 287 289 291 294 299 301 304 308 312 319 323 325 325 327 326 325 323 323 322
304 302 303 302 303 305 301 301 299 299 302 300 298 296 293 291 290 289 287 287 287 287 286 286 287 287 287 289 291 296 297 300 303 307 306 310 312 319 324 323 322 321 321 321
302 302 303 306 304 303 302 300 299 297 297 299 301 296 292 290 288 287 286 286 286 285 285 285 286 286 286 288 290 293 295 298 300 301 304 307 310 307 313 319 320 321 320 320
302 303 304 307 305 305 300 300 297 296 295 295 295 293 291 288 287 286 285 285 284 284 285 285 286 287 288 289 291 292 295 295 296 299 302 302 305 304 306 308 313 316 316 316
302 303 305 310 305 301 302 297 297 299 295 293 293 293 292 289 291 286 284 284 284 285 286 286 286 287 289 290 289 291 293 294 293 294 295 297 297 302 302 302 304 304 305 308
304 304 306 308 307 305 298 294 294 296 294 291 290 290 289 292 291 286 284 285 285 285 286 288 289 289 290 290 290 290 291 291 293 293 292 293 295 296 297 299 299 300 300 301
304 305 304 306 304 299 293 292 295 300 295 290 288 286 287 285 284 284 284 284 285 285 286 288 288 288 288 289 289 290 290 290 291 292 294 294 295 294 294 296 296 297 297 298
300 301 300 301 303 302 291 294 297 292 289 288 286 285 284 284 284 284 284 284 285 286 286 286 287 286 287 287 288 288 289 288 290 292 293 293 294 294 293 293 293 294 295 295
300 296 297 295 294 291 289 290 291 291 288 286 286 285 285 284 283 284 284 284 284 284 284 285 286 286 286 286 286 287 286 288 289 290 290 290 291 292 293 293 292 292 292 292
296 295 294 293 292 290 289 288 289 289 288 287 286 285 285 284 283 283 284 284 284 284 284 283 283 283 283 283 284 284 285 286 287 287 287 288 289 289 290 290 290 290 289 289
293 294 294 292 291 289 288 287 287 287 287 287 286 286 285 285 284 283 283 283 283 283 282 282 282 282 282 282 282 282 282 282 283 283 284 285 285 286 287 287 286 286 285 286
294 294 290 288 289 288 288 287 287 287 286 286 286 285 285 285 284 283 282 280 281 281 281 281 281 281 281 281 281 281 281 281 281 281 281 281 281 282 283 284 285 285 284 285

GFSCGP_850_thetae_111.txt.gz
Theta_e
302 305 306 306 306 306 305 305 306 306 306 306 306 305 305 305 304 305 305 305 305 306 306 306 306 307 307 309 310 310 310 311 311 313 313 314 315 322 333 334 330 332 334 328
304 305 304 302 302 303 304 304 305 305 305 304 303 303 304 304 304 304 304 305 306 306 308 309 308 308 309 310 310 311 311 311 310 311 313 314 314 315 323 332 331 330 331 334
304 305 303 303 303 303 303 304 303 302 302 302 302 303 304 304 304 304 308 311 310 310 309 310 310 311 312 314 313 311 311 311 310 310 312 318 321 325 323 332 335 330 327 332
303 301 302 301 301 301 301 302 302 301 301 301 303 302 303 303 305 311 310 308 306 305 304 304 305 306 309 312 312 313 312 311 311 310 310 322 321 329 330 318 322 331 326 328
302 301 301 302 302 300 302 301 302 302 303 303 303 303 304 303 307 308 305 304 302 300 300 299 299 302 307 310 312 314 314 314 312 311 312 313 322 321 328 320 319 327 326 326
301 301 301 302 301 301 302 303 303 304 304 302 302 302 303 309 308 305 303 301 299 298 296 298 298 300 303 307 310 312 314 317 316 313 314 314 316 326 330 327 322 326 331 326
301 301 302 302 303 302 302 302 304 304 305 303 304 303 305 308 306 303 302 300 298 296 295 294 295 297 300 303 305 308 311 316 320 319 316 317 324 329 330 327 324 324 331 328
300 300 303 301 302 301 301 301 302 303 304 304 302 302 308 305 303 301 300 298 296 295 293 292 292 294 297 299 302 303 307 315 320 325 320 326 326 333 331 331 332 330 330 326
300 301 301 300 300 300 301 302 302 302 302 302 302 306 305 303 302 300 298 296 295 293 292 291 291 291 295 296 300 299 306 313 318 324 327 328 329 331 335 332 333 332 330 328
301 301 301 300 301 301 301 303 305 304 306 307 307 306 310 302 300 298 297 295 293 292 290 290 290 290 293 294 296 299 304 310 317 323 327 330 330 331 332 333 333 333 332 331
301 300 299 301 301 301 302 303 303 304 304 309 310 309 302 299 297 296 295 293 292 291 289 288 289 289 290 293 294 297 304 311 317 321 327 331 331 331 332 333 333 333 333 332
301 302 302 301 301 302 301 302 304 305 307 308 309 308 298 297 295 293 293 292 291 290 288 288 288 288 289 291 292 294 309 312 314 317 324 329 331 330 331 331 333 334 333 333
302 302 301 302 305 306 304 304 306 308 305 306 308 306 297 294 293 291 291 290 290 289 288 287 287 287 287 288 290 296 299 304 313 314 320 326 327 329 329 330 332 333 331 330
302 301 301 299 299 300 302 304 304 306 308 307 307 300 296 294 292 290 289 289 289 288 287 286 286 286 287 289 294 294 296 302 307 310 317 320 323 325 325 327 329 328 329 329
302 301 301 301 301 302 304 303 302 301 305 308 301 297 295 293 291 289 288 288 288 287 286 285 285 286 287 289 291 293 295 299 301 305 313 314 316 321 323 325 325 325 324 324
302 303 301 300 302 303 301 300 301 299 301 299 297 295 292 291 289 288 287 287 287 286 285 284 285 286 286 288 291 292 293 296 298 298 302 306 308 313 320 320 321 321 321 321
302 303 303 305 303 302 304 300 299 298 297 300 301 295 292 290 288 287 286 286 285 284 284 284 285 286 287 287 289 290 292 295 297 298 299 303 303 303 305 306 311 317 317 319
303 303 304 306 304 307 301 298 297 296 295 296 295 293 291 289 287 285 284 284 283 283 284 285 286 288 289 290 290 292 294 294 294 295 296 299 299 300 304 304 304 305 305 312
301 303 304 308 306 302 301 298 298 299 295 293 294 294 291 290 290 286 284 283 283 284 284 286 287 288 289 290 290 290 292 293 294 294 296 296 298 299 298 299 302 300 300 302
304 303 304 305 306 305 299 294 294 296 299 292 291 291 293 292 294 287 283 284 284 285 285 287 287 288 290 289 289 290 290 291 291 291 292 293 294 294 294 294 293 294 296 298
303 304 305 307 304 300 294 292 295 302 299 289 288 288 289 288 286 283 284 284 284 285 285 285 286 286 287 288 288 289 289 288 288 290 291 292 293 293 292 292 293 292 293 294
301 301 301 303 303 303 291 295 299 293 289 287 286 284 284 283 283 283 284 284 284 285 285 284 284 284 284 285 286 286 286 287 288 289 290 290 291 291 291 292 291 292 292 292
301 297 298 296 296 291 290 291 291 290 288 286 285 285 285 284 284 284 284 284 283 282 282 282 282 282 282 282 283 283 283 284 285 286 287 288 288 289 290 291 291 291 291 291
297 295 294 294 291 290 289 288 288 288 287 286 286 285 286 285 284 284 284 283 282 282 282 282 282 282 281 281 281 281 281 282 283 283 283 284 285 286 287 287 288 288 288 288
295 295 294 292 290 289 288 288 286 287 287 286 285 285 285 284 283 283 283 282 282 281 281 281 281 281 281 281 281 281 281 281 281 281 281 281 281 282 282 283 284 284 284 284
295 294 294 295 290 290 288 287 287 287 286 286 286 285 284 284 283 281 280 280 280 280 280 279 279 279 279 279 279 280 279 279 280 280 280 280 280 280 279 279 280 280 280 280

GFSCGP_850_thetae_117.txt.gz
Theta_e
309 311 312 313 314 313 313 313 312 312 312 311 311 312 312 311 311 311 310 310 310 312 314 313 312 312 313 314 314 315 316 317 319 321 317 320 331 334 336 335 339 338 338 339
312 312 313 312 312 312 312 310 311 311 311 311 311 311 310 311 311 311 310 310 314 313 312 310 310 310 310 310 311 312 312 313 315 317 320 318 320 328 333 334 335 339 340 339
312 313 311 310 310 310 310 310 310 310 310 310 309 310 312 313 310 309 312 313 311 311 310 309 308 307 307 307 308 308 309 310 312 313 315 318 319 320 328 332 334 337 340 341
310 310 309 310 309 309 309 310 309 309 308 309 311 311 312 313 313 312 312 311 310 309 307 306 306 305 305 304 306 306 306 307 309 311 313 316 318 320 322 330 333 333 338 339
309 308 308 308 308 309 309 309 308 308 308 308 309 309 311 313 312 313 312 309 307 307 305 304 303 302 302 302 303 303 303 304 306 308 309 312 316 319 321 321 332 332 335 336
309 308 308 308 308 307 307 307 307 307 307 308 309 310 311 314 313 311 308 306 305 304 303 301 300 299 299 299 299 299 300 302 303 304 305 307 310 315 319 322 325 331 332 333
309 309 308 306 307 308 307 307 309 310 310 310 311 311 310 313 310 307 306 305 303 302 300 299 297 296 296 296 296 296 296 297 299 300 303 308 310 311 315 319 322 330 332 333
309 309 309 307 307 307 307 308 309 309 309 309 309 309 312 310 308 306 304 303 300 299 298 296 295 294 293 293 293 292 292 293 295 301 306 310 311 312 312 317 316 326 332 332
306 307 306 306 306 306 305 306 306 306 306 307 307 308 311 309 308 304 302 301 298 297 295 294 293 292 290 290 290 290 291 293 298 302 307 308 310 314 315 317 319 323 331 333
305 305 305 305 304 305 305 305 305 306 306 308 308 309 312 305 303 302 301 299 297 295 293 292 291 289 288 289 288 288 291 292 296 298 301 305 310 314 316 318 322 325 329 333
304 305 305 303 304 304 305 305 304 305 308 311 312 315 304 300 299 299 299 298 296 294 293 291 289 288 288 288 288 289 291 293 296 298 303 305 307 313 318 321 324 327 330 330
304 305 305 304 304 305 305 306 306 307 307 310 309 312 300 298 298 297 296 296 295 293 292 291 289 288 288 288 288 289 290 293 294 299 301 300 307 314 322 328 328 330 330 330
304 303 303 305 306 307 308 307 305 307 309 310 312 311 300 298 297 295 295 295 294 293 291 290 289 288 288 288 288 289 290 291 295 297 295 299 307 318 326 325 324 327 327 329
303 304 305 307 306 306 307 307 307 307 308 308 310 309 301 298 297 295 293 293 292 291 290 289 288 288 288 288 288 288 291 291 292 295 292 296 306 315 320 322 325 328 329 330
302 304 305 304 304 304 305 307 307 308 308 310 309 305 299 297 295 294 292 291 291 290 288 288 287 287 287 288 289 288 289 291 291 293 296 296 301 305 309 313 315 318 321 324
304 303 305 305 306 307 309 308 307 307 306 303 304 301 297 295 294 293 291 291 289 288 287 287 287 287 286 287 288 289 289 289 291 292 294 297 299 302 301 302 302 308 308 311
305 306 306 309 307 307 309 306 305 305 302 304 305 300 297 295 293 291 290 289 288 287 286 286 286 285 285 287 287 288 289 291 291 291 291 293 294 299 299 300 301 301 301 302
307 306 307 309 307 310 304 302 303 303 302 301 299 299 297 293 291 289 288 287 287 285 285 284 284 284 284 286 285 287 287 291 292 292 291 293 296 294 295 295 297 299 298 298
306 306 309 309 310 307 303 302 302 302 301 301 300 297 295 293 293 290 287 286 284 283 283 282 282 283 284 285 286 287 288 289 290 290 291 292 292 293 292 292 291 294 293 296
305 305 307 309 309 311 306 303 301 302 305 299 299 298 296 296 301 293 286 285 284 282 282 282 282 282 283 283 284 286 287 288 288 288 289 290 291 292 291 291 292 292 293 293
307 308 308 308 310 307 302 300 300 306 304 298 299 298 297 297 292 287 286 284 283 281 281 281 281 281 281 282 282 282 283 283 284 285 285 287 288 288 290 291 292 292 291 292
309 310 310 308 311 311 298 300 303 299 297 297 297 294 291 288 286 285 284 283 283 282 281 280 281 281 281 281 281 281 281 281 282 282 283 283 283 284 284 284 285 286 287 288
307 306 307 304 303 296 296 298 297 296 296 295 293 291 289 287 287 286 285 284 283 282 282 281 280 280 280 280 281 281 281 281 282 282 282 282 282 282 283 283 283 283 283 283
302 300 304 301 297 295 295 295 296 295 294 293 291 290 289 287 286 285 285 284 283 282 282 282 282 281 280 280 280 280 281 281 281 281 281 281 281 282 282 281 281 281 281 281
303 301 301 298 295 294 294 294 293 292 291 290 289 289 287 286 285 284 284 283 283 282 282 281 281 281 280 280 280 280 280 280 281 281 281 281 281 281 281 281 280 278 278 278
301 303 302 305 296 297 294 292 291 290 289 289 288 287 287 286 285 285 284 283 283 282 282 281 281 281 280 280 280 280 280 280 280 281 281 281 281 281 281 281 281 280 278 278